| time (UTC) | temp F | wind direction | speed knots | gust knots | rain 1hr in | rain 24hr in | rain mn in | humidity % | barometer mb |
| 20260506233035 | 46 | 216 | 0.0 | 5.2 | 0.00 | 0.00 | 0.00 | 53 | 1015.3 |
| 20260506232837 | 46 | 216 | 0.0 | 5.2 | 0.00 | 0.00 | 0.00 | 53 | 1015.3 |
| 20260506232647 | 46 | 233 | 0.0 | 5.2 | 0.00 | 0.00 | 0.00 | 53 | 1015.3 |
| 20260506232637 | 46 | 227 | 0.0 | 5.2 | 0.00 | 0.00 | 0.00 | 53 | 1015.2 |
| 20260506232542 | 46 | 285 | 0.0 | 4.3 | 0.00 | 0.00 | 0.00 | 52 | 1015.3 |
| 20260506232444 | 46 | 250 | 0.0 | 5.2 | 0.00 | 0.00 | 0.00 | 52 | 1015.3 |
| 20260506232411 | 46 | 252 | 0.0 | 5.2 | 0.00 | 0.00 | 0.00 | 52 | 1015.3 |
| 20260506232034 | 47 | 219 | 0.0 | 5.2 | 0.00 | 0.00 | 0.00 | 52 | 1015.4 |
| 20260506231810 | 47 | 219 | 0.0 | 5.2 | 0.00 | 0.00 | 0.00 | 52 | 1015.3 |
| 20260506231649 | 47 | 228 | 0.0 | 5.2 | 0.00 | 0.00 | 0.00 | 53 | 1015.2 |
| 20260506231606 | 47 | 178 | 0.0 | 5.2 | 0.00 | 0.00 | 0.00 | 53 | 1015.3 |
| 20260506231401 | 47 | 102 | 0.0 | 6.1 | 0.00 | 0.00 | 0.00 | 53 | 1015.3 |
| 20260506231159 | 47 | 257 | 0.0 | 7.8 | 0.00 | 0.00 | 0.00 | 53 | 1015.2 |
| 20260506231147 | 47 | 257 | 0.0 | 7.8 | 0.00 | 0.00 | 0.00 | 53 | 1015.3 |
| 20260506231000 | 47 | 283 | 0.0 | 7.8 | 0.00 | 0.00 | 0.00 | 53 | 1015.2 |
| 20260506230855 | 46 | 250 | 0.0 | 7.8 | 0.00 | 0.00 | 0.00 | 53 | 1015.3 |
| 20260506230650 | 46 | 250 | 0.0 | 7.8 | 0.00 | 0.00 | 0.00 | 53 | 1015.2 |
| 20260506230552 | 46 | 233 | 0.0 | 7.8 | 0.00 | 0.00 | 0.00 | 53 | 1015.3 |
| 20260506230350 | 46 | 216 | 0.0 | 7.8 | 0.00 | 0.00 | 0.00 | 54 | 1015.3 |
| 20260506230151 | 46 | 231 | 0.0 | 5.2 | 0.00 | 0.00 | 0.00 | 54 | 1015.3 |
| 20260506230054 | 46 | 231 | 0.0 | 5.2 | 0.00 | 0.00 | 0.00 | 54 | 1015.3 |
| 20260506225734 | 46 | 271 | 0.0 | 5.2 | 0.00 | 0.00 | 0.00 | 53 | 1015.2 |
| 20260506225650 | 47 | 271 | 0.0 | 5.2 | 0.00 | 0.00 | 0.00 | 53 | 1015.2 |
| 20260506225532 | 47 | 272 | 0.0 | 5.2 | 0.00 | 0.00 | 0.00 | 52 | 1015.3 |
| 20260506225333 | 47 | 247 | 0.0 | 3.5 | 0.00 | 0.00 | 0.00 | 54 | 1015.3 |
| 20260506225151 | 47 | 250 | 0.0 | 3.5 | 0.00 | 0.00 | 0.00 | 54 | 1015.3 |
| 20260506225132 | 47 | 250 | 0.0 | 4.3 | 0.00 | 0.00 | 0.00 | 54 | 1015.3 |
| 20260506224913 | 47 | 248 | 0.0 | 4.3 | 0.00 | 0.00 | 0.00 | 52 | 1015.3 |
| 20260506224712 | 47 | 234 | 0.0 | 4.3 | 0.00 | 0.00 | 0.00 | 52 | 1015.3 |
| 20260506224647 | 47 | 240 | 0.0 | 4.3 | 0.00 | 0.00 | 0.00 | 53 | 1015.3 |
| 20260506224518 | 47 | 251 | 0.0 | 4.3 | 0.00 | 0.00 | 0.00 | 52 | 1015.3 |
| 20260506224410 | 47 | 231 | 0.0 | 4.3 | 0.00 | 0.00 | 0.00 | 52 | 1015.2 |
| 20260506224146 | 47 | 262 | 0.0 | 4.3 | 0.00 | 0.00 | 0.00 | 53 | 1015.2 |
| 20260506224107 | 47 | 250 | 0.0 | 3.5 | 0.00 | 0.00 | 0.00 | 52 | 1015.2 |
| 20260506223909 | 47 | 220 | 0.0 | 2.6 | 0.00 | 0.00 | 0.00 | 53 | 1015.3 |
| 20260506223707 | 47 | 220 | 0.0 | 2.6 | 0.00 | 0.00 | 0.00 | 53 | 1015.3 |
| 20260506223649 | 47 | 220 | 0.0 | 2.6 | 0.00 | 0.00 | 0.00 | 53 | 1015.3 |
| 20260506223456 | 47 | 217 | 0.0 | 2.6 | 0.00 | 0.00 | 0.00 | 53 | 1015.3 |
| 20260506223254 | 47 | 245 | 0.0 | 2.6 | 0.00 | 0.00 | 0.00 | 53 | 1015.3 |
| 20260506223150 | 47 | 259 | 0.0 | 1.7 | 0.00 | 0.00 | 0.00 | 54 | 1015.4 |
| 20260506223051 | 47 | 259 | 0.0 | 1.7 | 0.00 | 0.00 | 0.00 | 53 | 1015.3 |
| 20260506222940 | 47 | 228 | 0.0 | 4.3 | 0.00 | 0.00 | 0.00 | 52 | 1015.2 |
| 20260506222930 | 47 | 228 | 0.0 | 0.9 | 0.00 | 0.00 | 0.00 | 52 | 1015.2 |
| 20260506222437 | 47 | 228 | 0.0 | 4.3 | 0.00 | 0.00 | 0.00 | 52 | 1015.2 |
| 20260506222238 | 47 | 228 | 0.0 | 4.3 | 0.00 | 0.00 | 0.00 | 52 | 1015.3 |
| 20260506222136 | 47 | 228 | 0.0 | 4.3 | 0.00 | 0.00 | 0.00 | 52 | 1015.2 |
| 20260506222040 | 47 | 228 | 0.0 | 4.3 | 0.00 | 0.00 | 0.00 | 52 | 1015.3 |
| 20260506221839 | 47 | 228 | 0.0 | 4.3 | 0.00 | 0.00 | 0.00 | 52 | 1015.3 |
| 20260506221637 | 47 | 231 | 0.0 | 2.6 | 0.00 | 0.00 | 0.00 | 53 | 1015.4 |
| 20260506221437 | 47 | 231 | 0.0 | 4.3 | 0.00 | 0.00 | 0.00 | 54 | 1015.3 |
| 20260506221239 | 47 | 231 | 0.0 | 4.3 | 0.00 | 0.00 | 0.00 | 52 | 1015.4 |
| 20260506221136 | 47 | 231 | 0.0 | 4.3 | 0.00 | 0.00 | 0.00 | 52 | 1015.4 |
| 20260506221037 | 47 | 226 | 0.0 | 4.3 | 0.00 | 0.00 | 0.00 | 51 | 1015.4 |
| 20260506220938 | 48 | 128 | 0.0 | 4.3 | 0.00 | 0.00 | 0.00 | 55 | 1015.4 |
| 20260506220637 | 47 | 128 | 0.0 | 4.3 | 0.00 | 0.00 | 0.00 | 53 | 1015.4 |
| 20260506220437 | 47 | 7 | 0.0 | 2.6 | 0.00 | 0.00 | 0.00 | 54 | 1015.4 |
| 20260506220239 | 47 | 240 | 0.0 | 2.6 | 0.00 | 0.00 | 0.00 | 54 | 1015.4 |
| 20260506220136 | 47 | 240 | 0.0 | 3.5 | 0.00 | 0.00 | 0.00 | 53 | 1015.4 |
| 20260506220038 | 46 | 68 | 0.0 | 3.5 | 0.00 | 0.00 | 0.00 | 54 | 1015.5 |
| 20260506215834 | 46 | 68 | 0.0 | 4.3 | 0.00 | 0.00 | 0.00 | 54 | 1015.4 |
| 20260506215638 | 47 | 189 | 0.0 | 9.6 | 0.00 | 0.00 | 0.00 | 54 | 1015.4 |
| 20260506215624 | 46 | 252 | 0.0 | 9.6 | 0.00 | 0.00 | 0.00 | 54 | 1015.4 |
| 20260506215414 | 46 | 212 | 0.0 | 9.6 | 0.00 | 0.00 | 0.00 | 55 | 1015.5 |
| 20260506215312 | 46 | 247 | 0.0 | 9.6 | 0.00 | 0.00 | 0.00 | 54 | 1015.6 |
| 20260506215136 | 46 | 227 | 0.0 | 9.6 | 0.00 | 0.00 | 0.00 | 54 | 1015.6 |
| 20260506215010 | 46 | 240 | 0.0 | 9.6 | 0.00 | 0.00 | 0.00 | 54 | 1015.5 |
| 20260506214808 | 46 | 238 | 0.0 | 9.6 | 0.00 | 0.00 | 0.00 | 53 | 1015.6 |
| 20260506214636 | 46 | 212 | 0.0 | 8.7 | 0.00 | 0.00 | 0.00 | 53 | 1015.5 |
| 20260506214608 | 46 | 231 | 0.0 | 8.7 | 0.00 | 0.00 | 0.00 | 53 | 1015.6 |
| 20260506214408 | 47 | 243 | 0.0 | 5.2 | 0.00 | 0.00 | 0.00 | 54 | 1015.6 |
| 20260506214207 | 46 | 259 | 0.0 | 5.2 | 0.00 | 0.00 | 0.00 | 55 | 1015.6 |
| 20260506214135 | 46 | 240 | 0.0 | 5.2 | 0.00 | 0.00 | 0.00 | 55 | 1015.6 |
| 20260506214008 | 46 | 255 | 0.0 | 5.2 | 0.00 | 0.00 | 0.00 | 52 | 1015.6 |
| 20260506213803 | 47 | 234 | 0.0 | 2.6 | 0.00 | 0.00 | 0.00 | 54 | 1015.7 |
| 20260506213634 | 0 | 0.0 | 0.0 | 0.00 | 0.00 | 0.00 | 1015.6 | ||
| 20260506213604 | 46 | 221 | 0.0 | 4.3 | 0.00 | 0.00 | 0.00 | 53 | 1015.6 |
| 20260506213404 | 46 | 221 | 0.0 | 4.3 | 0.00 | 0.00 | 0.00 | 53 | 1015.6 |
| 20260506213205 | 46 | 221 | 0.0 | 4.3 | 0.00 | 0.00 | 0.00 | 53 | 1015.8 |
| 20260506213130 | 46 | 221 | 0.0 | 4.3 | 0.00 | 0.00 | 0.00 | 53 | 1015.8 |
| 20260506212933 | 46 | 221 | 0.0 | 4.3 | 0.00 | 0.00 | 0.00 | 53 | 1015.7 |
| 20260506212732 | 46 | 221 | 0.0 | 4.3 | 0.00 | 0.00 | 0.00 | 53 | 1015.8 |
| 20260506212639 | 46 | 268 | 0.0 | 4.3 | 0.00 | 0.00 | 0.00 | 53 | 1015.7 |
| 20260506212629 | 46 | 221 | 0.0 | 4.3 | 0.00 | 0.00 | 0.00 | 53 | 1015.7 |
| 20260506212516 | 46 | 312 | 0.0 | 4.3 | 0.00 | 0.00 | 0.00 | 54 | 1015.7 |
| 20260506212125 | 46 | 203 | 0.0 | 6.1 | 0.00 | 0.00 | 0.00 | 55 | 1015.8 |
| 20260506211923 | 46 | 220 | 0.0 | 6.1 | 0.00 | 0.00 | 0.00 | 56 | 1015.8 |
| 20260506211723 | 46 | 217 | 0.0 | 6.1 | 0.00 | 0.00 | 0.00 | 56 | 1015.8 |
| 20260506211627 | 46 | 217 | 0.0 | 6.1 | 0.00 | 0.00 | 0.00 | 56 | 1015.7 |
| 20260506211522 | 46 | 213 | 0.0 | 6.1 | 0.00 | 0.00 | 0.00 | 56 | 1015.8 |
| 20260506211317 | 46 | 268 | 0.0 | 10.4 | 0.00 | 0.00 | 0.00 | 55 | 1015.9 |
| 20260506211211 | 46 | 254 | 0.0 | 10.4 | 0.00 | 0.00 | 0.00 | 55 | 1015.8 |
| 20260506211125 | 46 | 252 | 0.0 | 10.4 | 0.00 | 0.00 | 0.00 | 56 | 1015.8 |
| 20260506210927 | 46 | 228 | 0.0 | 10.4 | 0.00 | 0.00 | 0.00 | 56 | 1015.8 |
| 20260506210919 | 46 | 244 | 0.0 | 10.4 | 0.00 | 0.00 | 0.00 | 55 | 1015.8 |
| 20260506210848 | 46 | 228 | 0.0 | 10.4 | 0.00 | 0.00 | 0.00 | 57 | 1015.8 |
| 20260506210505 | 46 | 235 | 0.0 | 10.4 | 0.00 | 0.00 | 0.00 | 56 | 1015.9 |
| 20260506210306 | 45 | 233 | 0.0 | 8.7 | 0.00 | 0.00 | 0.00 | 57 | 1015.9 |
| 20260506210124 | 46 | 259 | 0.0 | 7.8 | 0.00 | 0.00 | 0.00 | 55 | 1015.9 |
| 20260506210104 | 46 | 224 | 0.0 | 7.8 | 0.00 | 0.00 | 0.00 | 56 | 1015.9 |
| 20260506205905 | 46 | 258 | 0.0 | 7.8 | 0.00 | 0.00 | 0.00 | 58 | 1015.9 |
| 20260506205704 | 46 | 258 | 0.0 | 7.8 | 0.00 | 0.00 | 0.00 | 58 | 1015.9 |
| 20260506205623 | 46 | 258 | 0.0 | 7.8 | 0.00 | 0.00 | 0.00 | 58 | 1015.9 |
| 20260506205504 | 45 | 264 | 0.0 | 7.8 | 0.00 | 0.00 | 0.00 | 58 | 1016.1 |
| 20260506205309 | 45 | 243 | 0.0 | 7.8 | 0.00 | 0.00 | 0.00 | 57 | 1016.0 |
| 20260506205117 | 45 | 240 | 0.0 | 5.2 | 0.00 | 0.00 | 0.00 | 56 | 1016.1 |
| 20260506205107 | 45 | 240 | 0.0 | 6.1 | 0.00 | 0.00 | 0.00 | 56 | 1016.1 |
| 20260506204838 | 45 | 240 | 0.0 | 6.1 | 0.00 | 0.00 | 0.00 | 56 | 1016.1 |
| 20260506204639 | 45 | 279 | 0.0 | 6.1 | 0.00 | 0.00 | 0.00 | 55 | 1016.1 |
| 20260506204604 | 45 | 127 | 0.0 | 6.1 | 0.00 | 0.00 | 0.00 | 59 | 1016.2 |
| 20260506204437 | 45 | 248 | 0.0 | 6.1 | 0.00 | 0.00 | 0.00 | 57 | 1016.1 |
| 20260506204337 | 45 | 233 | 0.0 | 6.1 | 0.00 | 0.00 | 0.00 | 56 | 1016.0 |
| 20260506204103 | 45 | 214 | 0.0 | 5.2 | 0.00 | 0.00 | 0.00 | 57 | 1016.1 |
| 20260506204041 | 45 | 265 | 0.0 | 5.2 | 0.00 | 0.00 | 0.00 | 56 | 1016.1 |
| 20260506203834 | 46 | 227 | 0.0 | 5.2 | 0.00 | 0.00 | 0.00 | 59 | 1016.1 |
| 20260506203635 | 45 | 223 | 0.0 | 5.2 | 0.00 | 0.00 | 0.00 | 59 | 1016.1 |
| 20260506203603 | 45 | 223 | 0.0 | 5.2 | 0.00 | 0.00 | 0.00 | 59 | 1016.1 |
| 20260506203436 | 45 | 223 | 0.0 | 6.1 | 0.00 | 0.00 | 0.00 | 59 | 1016.1 |
| 20260506203224 | 44 | 237 | 0.0 | 8.7 | 0.00 | 0.00 | 0.00 | 59 | 1016.0 |
| 20260506203102 | 44 | 235 | 0.0 | 8.7 | 0.00 | 0.00 | 0.00 | 58 | 1016.0 |
| 20260506203024 | 44 | 254 | 0.0 | 8.7 | 0.00 | 0.00 | 0.00 | 58 | 1016.0 |
| 20260506202901 | 44 | 248 | 0.0 | 8.7 | 0.00 | 0.00 | 0.00 | 59 | 1016.1 |
| 20260506202849 | 44 | 271 | 0.0 | 8.7 | 0.00 | 0.00 | 0.00 | 58 | 1016.0 |
| 20260506202423 | 44 | 228 | 0.0 | 8.7 | 0.00 | 0.00 | 0.00 | 58 | 1016.0 |
| 20260506202222 | 44 | 243 | 0.0 | 8.7 | 0.00 | 0.00 | 0.00 | 57 | 1016.1 |
| 20260506202101 | 45 | 257 | 0.0 | 8.7 | 0.00 | 0.00 | 0.00 | 58 | 1016.1 |
| 20260506202029 | 45 | 234 | 0.0 | 8.7 | 0.00 | 0.00 | 0.00 | 58 | 1016.1 |
| 20260506201824 | 44 | 261 | 0.0 | 3.5 | 0.00 | 0.00 | 0.00 | 58 | 1016.1 |
| 20260506201602 | 44 | 261 | 0.0 | 3.5 | 0.00 | 0.00 | 0.00 | 58 | 1016.2 |
| 20260506201424 | 44 | 261 | 0.0 | 3.5 | 0.00 | 0.00 | 0.00 | 58 | 1016.1 |
| 20260506201303 | 44 | 219 | 0.0 | 4.3 | 0.00 | 0.00 | 0.00 | 59 | 1016.1 |
| 20260506201101 | 44 | 235 | 0.0 | 4.3 | 0.00 | 0.00 | 0.00 | 58 | 1016.2 |
| 20260506201011 | 44 | 234 | 0.0 | 4.3 | 0.00 | 0.00 | 0.00 | 59 | 1016.2 |
| 20260506200807 | 44 | 234 | 0.0 | 4.3 | 0.00 | 0.00 | 0.00 | 59 | 1016.2 |
| 20260506200603 | 44 | 237 | 0.0 | 4.3 | 0.00 | 0.00 | 0.00 | 59 | 1016.2 |
| 20260506200403 | 44 | 268 | 0.0 | 3.5 | 0.00 | 0.00 | 0.00 | 59 | 1016.2 |
| 20260506200203 | 44 | 235 | 0.0 | 4.3 | 0.00 | 0.00 | 0.00 | 59 | 1016.2 |
| 20260506200005 | 44 | 234 | 0.0 | 5.2 | 0.00 | 0.00 | 0.00 | 59 | 1016.2 |
| 20260506195802 | 44 | 245 | 0.0 | 5.2 | 0.00 | 0.00 | 0.00 | 59 | 1016.2 |
| 20260506195711 | 44 | 257 | 0.0 | 5.2 | 0.00 | 0.00 | 0.00 | 61 | 1016.2 |
| 20260506195604 | 44 | 257 | 0.0 | 5.2 | 0.00 | 0.00 | 0.00 | 61 | 1016.2 |
| 20260506195352 | 44 | 257 | 0.0 | 7.8 | 0.00 | 0.00 | 0.00 | 61 | 1016.1 |
| 20260506195152 | 44 | 262 | 0.0 | 8.7 | 0.00 | 0.00 | 0.00 | 60 | 1016.2 |
| 20260506195101 | 44 | 258 | 0.0 | 8.7 | 0.00 | 0.00 | 0.00 | 59 | 1016.2 |
| 20260506194932 | 44 | 255 | 0.0 | 8.7 | 0.00 | 0.00 | 0.00 | 59 | 1016.2 |
| 20260506194733 | 44 | 269 | 0.0 | 8.7 | 0.00 | 0.00 | 0.00 | 60 | 1016.2 |
| 20260506194601 | 44 | 241 | 0.0 | 8.7 | 0.00 | 0.00 | 0.00 | 59 | 1016.2 |
| 20260506194523 | 44 | 223 | 0.0 | 8.7 | 0.00 | 0.00 | 0.00 | 60 | 1016.2 |
| 20260506194322 | 44 | 231 | 0.0 | 8.7 | 0.00 | 0.00 | 0.00 | 59 | 1016.2 |
| 20260506194123 | 44 | 240 | 0.0 | 8.7 | 0.00 | 0.00 | 0.00 | 58 | 1016.2 |
| 20260506194102 | 44 | 238 | 0.0 | 7.8 | 0.00 | 0.00 | 0.00 | 58 | 1016.2 |
| 20260506194020 | 44 | 245 | 0.0 | 7.8 | 0.00 | 0.00 | 0.00 | 57 | 1016.2 |
| 20260506193721 | 44 | 230 | 0.0 | 7.8 | 0.00 | 0.00 | 0.00 | 57 | 1016.2 |
| 20260506193605 | 44 | 230 | 0.0 | 7.8 | 0.00 | 0.00 | 0.00 | 57 | 1016.2 |
| 20260506193521 | 44 | 230 | 0.0 | 7.8 | 0.00 | 0.00 | 0.00 | 57 | 1016.2 |
| 20260506193320 | 44 | 264 | 0.0 | 7.8 | 0.00 | 0.00 | 0.00 | 57 | 1016.1 |
| 20260506193101 | 44 | 227 | 0.0 | 5.2 | 0.00 | 0.00 | 0.00 | 59 | 1016.2 |
| 20260506192921 | 44 | 241 | 0.0 | 5.2 | 0.00 | 0.00 | 0.00 | 58 | 1016.2 |
| 20260506192825 | 45 | 285 | 0.0 | 2.6 | 0.00 | 0.00 | 0.00 | 58 | 1016.2 |
| 20260506192602 | 45 | 285 | 0.0 | 4.3 | 0.00 | 0.00 | 0.00 | 58 | 1016.3 |
| 20260506192522 | 45 | 285 | 0.0 | 5.2 | 0.00 | 0.00 | 0.00 | 58 | 1016.3 |
| 20260506192307 | 45 | 285 | 0.0 | 5.2 | 0.00 | 0.00 | 0.00 | 58 | 1016.2 |
| 20260506192106 | 45 | 285 | 0.0 | 5.2 | 0.00 | 0.00 | 0.00 | 58 | 1016.3 |
| 20260506191906 | 45 | 285 | 0.0 | 5.2 | 0.00 | 0.00 | 0.00 | 58 | 1016.3 |
| 20260506191707 | 45 | 261 | 0.0 | 5.2 | 0.00 | 0.00 | 0.00 | 58 | 1016.3 |
| 20260506191535 | 45 | 266 | 0.0 | 9.6 | 0.00 | 0.00 | 0.00 | 59 | 1016.3 |
| 20260506191506 | 45 | 261 | 0.0 | 9.6 | 0.00 | 0.00 | 0.00 | 60 | 1016.3 |
| 20260506191305 | 44 | 252 | 0.0 | 10.4 | 0.00 | 0.00 | 0.00 | 58 | 1016.3 |
| 20260506191209 | 44 | 258 | 0.0 | 10.4 | 0.00 | 0.00 | 0.00 | 57 | 1016.3 |
| 20260506191034 | 44 | 282 | 0.0 | 10.4 | 0.00 | 0.00 | 0.00 | 57 | 1016.2 |
| 20260506190905 | 44 | 288 | 0.0 | 10.4 | 0.00 | 0.00 | 0.00 | 60 | 1016.2 |
| 20260506190708 | 44 | 247 | 0.0 | 13.0 | 0.00 | 0.00 | 0.00 | 58 | 1016.3 |
| 20260506190535 | 44 | 234 | 0.0 | 13.0 | 0.00 | 0.00 | 0.00 | 57 | 1016.3 |
| 20260506190508 | 44 | 244 | 0.0 | 13.0 | 0.00 | 0.00 | 0.00 | 59 | 1016.3 |
| 20260506190338 | 44 | 265 | 0.0 | 13.0 | 0.00 | 0.00 | 0.00 | 60 | 1016.3 |
| 20260506190330 | 44 | 247 | 0.0 | 13.0 | 0.00 | 0.00 | 0.00 | 59 | 1016.3 |
| 20260506190300 | 44 | 265 | 0.0 | 13.0 | 0.00 | 0.00 | 0.00 | 58 | 1016.3 |
| 20260506185903 | 44 | 240 | 0.0 | 13.0 | 0.00 | 0.00 | 0.00 | 59 | 1016.2 |
| 20260506185704 | 44 | 223 | 0.0 | 11.3 | 0.00 | 0.00 | 0.00 | 59 | 1016.2 |
| 20260506185532 | 44 | 268 | 0.0 | 11.3 | 0.00 | 0.00 | 0.00 | 60 | 1016.3 |
| 20260506185454 | 44 | 268 | 0.0 | 11.3 | 0.00 | 0.00 | 0.00 | 60 | 1016.3 |
| 20260506185332 | 44 | 274 | 0.0 | 11.3 | 0.00 | 0.00 | 0.00 | 59 | 1016.3 |
| 20260506185320 | 44 | 265 | 0.0 | 11.3 | 0.00 | 0.00 | 0.00 | 58 | 1016.2 |
| 20260506185251 | 44 | 290 | 0.0 | 11.3 | 0.00 | 0.00 | 0.00 | 59 | 1016.3 |
| 20260506184855 | 44 | 227 | 0.0 | 10.4 | 0.00 | 0.00 | 0.00 | 60 | 1016.3 |
| 20260506184654 | 44 | 254 | 0.0 | 11.3 | 0.00 | 0.00 | 0.00 | 60 | 1016.2 |
| 20260506184528 | 44 | 226 | 0.0 | 11.3 | 0.00 | 0.00 | 0.00 | 61 | 1016.2 |
| 20260506184449 | 44 | 251 | 0.0 | 11.3 | 0.00 | 0.00 | 0.00 | 60 | 1016.3 |
| 20260506184423 | 43 | 244 | 0.0 | 11.3 | 0.00 | 0.00 | 0.00 | 58 | 1016.4 |
| 20260506184332 | 44 | 220 | 0.0 | 11.3 | 0.00 | 0.00 | 0.00 | 56 | 1016.4 |
| 20260506184253 | 44 | 243 | 0.0 | 11.3 | 0.00 | 0.00 | 0.00 | 56 | 1016.4 |
| 20260506183848 | 45 | 240 | 0.0 | 11.3 | 0.00 | 0.00 | 0.00 | 58 | 1016.3 |
| 20260506183647 | 45 | 258 | 0.0 | 9.6 | 0.00 | 0.00 | 0.00 | 59 | 1016.3 |
| 20260506183511 | 45 | 245 | 0.0 | 9.6 | 0.00 | 0.00 | 0.00 | 59 | 1016.3 |
| 20260506183442 | 45 | 245 | 0.0 | 9.6 | 0.00 | 0.00 | 0.00 | 59 | 1016.3 |
| 20260506183316 | 44 | 333 | 0.0 | 9.6 | 0.00 | 0.00 | 0.00 | 58 | 1016.4 |
| 20260506183303 | 44 | 226 | 0.0 | 9.6 | 0.00 | 0.00 | 0.00 | 60 | 1016.4 |
| 20260506183235 | 44 | 313 | 0.0 | 9.6 | 0.00 | 0.00 | 0.00 | 58 | 1016.4 |
| 20260506182833 | 44 | 261 | 0.0 | 9.6 | 0.00 | 0.00 | 0.00 | 60 | 1016.3 |
| 20260506182731 | 44 | 237 | 0.0 | 9.6 | 0.00 | 0.00 | 0.00 | 61 | 1016.3 |
| 20260506182506 | 43 | 238 | 0.0 | 9.6 | 0.00 | 0.00 | 0.00 | 60 | 1016.3 |
| 20260506182437 | 43 | 248 | 0.0 | 9.6 | 0.00 | 0.00 | 0.00 | 60 | 1016.3 |
| 20260506182235 | 43 | 206 | 0.0 | 9.6 | 0.00 | 0.00 | 0.00 | 59 | 1016.3 |
| 20260506182039 | 43 | 262 | 0.0 | 9.6 | 0.00 | 0.00 | 0.00 | 60 | 1016.3 |
| 20260506182003 | 43 | 262 | 0.0 | 9.6 | 0.00 | 0.00 | 0.00 | 60 | 1016.4 |
| 20260506181834 | 43 | 262 | 0.0 | 9.6 | 0.00 | 0.00 | 0.00 | 60 | 1016.4 |
| 20260506181631 | 43 | 245 | 0.0 | 9.6 | 0.00 | 0.00 | 0.00 | 60 | 1016.4 |
| 20260506181430 | 43 | 259 | 0.0 | 9.6 | 0.00 | 0.00 | 0.00 | 60 | 1016.4 |
| 20260506181232 | 43 | 254 | 0.0 | 9.6 | 0.00 | 0.00 | 0.00 | 59 | 1016.5 |
| 20260506181030 | 43 | 296 | 0.0 | 8.7 | 0.00 | 0.00 | 0.00 | 59 | 1016.4 |
| 20260506180931 | 43 | 210 | 0.0 | 8.7 | 0.00 | 0.00 | 0.00 | 58 | 1016.4 |
| 20260506180830 | 43 | 255 | 0.0 | 8.7 | 0.00 | 0.00 | 0.00 | 59 | 1016.5 |
| 20260506180630 | 43 | 217 | 0.0 | 6.1 | 0.00 | 0.00 | 0.00 | 59 | 1016.5 |
| 20260506180431 | 43 | 252 | 0.0 | 6.1 | 0.00 | 0.00 | 0.00 | 59 | 1016.5 |
| 20260506180232 | 43 | 262 | 0.0 | 6.1 | 0.00 | 0.00 | 0.00 | 59 | 1016.5 |
| 20260506180131 | 43 | 254 | 0.0 | 6.1 | 0.00 | 0.00 | 0.00 | 59 | 1016.5 |
| 20260506175932 | 43 | 269 | 0.0 | 5.2 | 0.00 | 0.00 | 0.00 | 57 | 1016.6 |
| 20260506175831 | 43 | 241 | 0.0 | 5.2 | 0.00 | 0.00 | 0.00 | 57 | 1016.5 |
| 20260506175633 | 43 | 224 | 0.0 | 5.2 | 0.00 | 0.00 | 0.00 | 58 | 1016.6 |
| 20260506175435 | 43 | 234 | 0.0 | 6.1 | 0.00 | 0.00 | 0.00 | 59 | 1016.5 |
| 20260506175234 | 43 | 234 | 0.0 | 6.1 | 0.00 | 0.00 | 0.00 | 59 | 1016.5 |
| 20260506175008 | 43 | 271 | 0.0 | 6.1 | 0.00 | 0.00 | 0.00 | 60 | 1016.4 |
| 20260506174906 | 43 | 303 | 0.0 | 6.1 | 0.00 | 0.00 | 0.00 | 60 | 1016.5 |
| 20260506174809 | 43 | 282 | 0.0 | 6.1 | 0.00 | 0.00 | 0.00 | 59 | 1016.5 |
| 20260506174607 | 43 | 258 | 0.0 | 6.1 | 0.00 | 0.00 | 0.00 | 61 | 1016.5 |
| 20260506174518 | 42 | 240 | 0.0 | 6.1 | 0.00 | 0.00 | 0.00 | 61 | 1016.5 |
| 20260506174410 | 42 | 240 | 0.0 | 6.1 | 0.00 | 0.00 | 0.00 | 61 | 1016.5 |
| 20260506174209 | 42 | 238 | 0.0 | 7.8 | 0.00 | 0.00 | 0.00 | 62 | 1016.5 |
| 20260506174012 | 42 | 227 | 0.0 | 7.8 | 0.00 | 0.00 | 0.00 | 60 | 1016.5 |
| 20260506173907 | 42 | 254 | 0.0 | 7.8 | 0.00 | 0.00 | 0.00 | 61 | 1016.5 |
| 20260506173809 | 42 | 254 | 0.0 | 8.7 | 0.00 | 0.00 | 0.00 | 61 | 1016.6 |
| 20260506173609 | 42 | 254 | 0.0 | 8.7 | 0.00 | 0.00 | 0.00 | 60 | 1016.6 |
| 20260506173405 | 42 | 254 | 0.0 | 8.7 | 0.00 | 0.00 | 0.00 | 60 | 1016.6 |
| 20260506173305 | 42 | 213 | 0.0 | 8.7 | 0.00 | 0.00 | 0.00 | 60 | 1016.7 |
| 20260506173005 | 42 | 251 | 0.0 | 8.7 | 0.00 | 0.00 | 0.00 | 61 | 1016.8 |
| 20260506172904 | 42 | 251 | 0.0 | 8.7 | 0.00 | 0.00 | 0.00 | 61 | 1016.7 |
| 20260506172805 | 42 | 230 | 0.0 | 8.7 | 0.00 | 0.00 | 0.00 | 61 | 1016.6 |
| 20260506172609 | 41 | 234 | 0.0 | 5.2 | 0.00 | 0.00 | 0.00 | 61 | 1016.7 |
| 20260506172412 | 41 | 234 | 0.0 | 5.2 | 0.00 | 0.00 | 0.00 | 61 | 1016.8 |
| 20260506172208 | 41 | 295 | 0.0 | 7.8 | 0.00 | 0.00 | 0.00 | 61 | 1016.7 |
| 20260506172010 | 41 | 0 | 0.0 | 8.7 | 0.00 | 0.00 | 0.00 | 60 | 1016.7 |
| 20260506171909 | 41 | 258 | 0.0 | 8.7 | 0.00 | 0.00 | 0.00 | 60 | 1016.8 |
| 20260506171809 | 41 | 223 | 0.0 | 10.4 | 0.00 | 0.00 | 0.00 | 60 | 1016.8 |
| 20260506171709 | 41 | 240 | 0.0 | 10.4 | 0.00 | 0.00 | 0.00 | 59 | 1016.8 |
| 20260506171408 | 41 | 248 | 0.0 | 10.4 | 0.00 | 0.00 | 0.00 | 60 | 1016.8 |
| 20260506171208 | 41 | 223 | 0.0 | 10.4 | 0.00 | 0.00 | 0.00 | 60 | 1016.8 |
| 20260506171009 | 41 | 251 | 0.0 | 10.4 | 0.00 | 0.00 | 0.00 | 60 | 1016.8 |
| 20260506170907 | 41 | 268 | 0.0 | 10.4 | 0.00 | 0.00 | 0.00 | 60 | 1016.8 |
| 20260506170808 | 41 | 247 | 0.0 | 5.2 | 0.00 | 0.00 | 0.00 | 60 | 1016.8 |
| 20260506170608 | 41 | 293 | 0.0 | 8.7 | 0.00 | 0.00 | 0.00 | 60 | 1016.8 |
| 20260506170408 | 41 | 266 | 0.0 | 8.7 | 0.00 | 0.00 | 0.00 | 61 | 1016.8 |
| 20260506170207 | 41 | 244 | 0.0 | 8.7 | 0.00 | 0.00 | 0.00 | 61 | 1016.8 |
| 20260506170113 | 41 | 240 | 0.0 | 8.7 | 0.00 | 0.00 | 0.00 | 64 | 1016.8 |
| 20260506165906 | 41 | 237 | 0.0 | 8.7 | 0.00 | 0.00 | 0.00 | 60 | 1016.8 |
| 20260506165805 | 41 | 235 | 0.0 | 8.7 | 0.00 | 0.00 | 0.00 | 59 | 1016.8 |
| 20260506165607 | 41 | 258 | 0.0 | 8.7 | 0.00 | 0.00 | 0.00 | 61 | 1016.9 |
| 20260506165408 | 41 | 224 | 0.0 | 7.8 | 0.00 | 0.00 | 0.00 | 62 | 1016.9 |
| 20260506165205 | 41 | 252 | 0.0 | 7.8 | 0.00 | 0.00 | 0.00 | 61 | 1016.8 |
| 20260506165009 | 41 | 252 | 0.0 | 6.1 | 0.00 | 0.00 | 0.00 | 60 | 1016.9 |
| 20260506164909 | 41 | 245 | 0.0 | 5.2 | 0.00 | 0.00 | 0.00 | 60 | 1016.7 |
| 20260506164809 | 41 | 230 | 0.0 | 5.2 | 0.00 | 0.00 | 0.00 | 60 | 1016.9 |
| 20260506164654 | 41 | 237 | 0.0 | 7.8 | 0.00 | 0.00 | 0.00 | 60 | 1016.9 |
| 20260506164647 | 41 | 237 | 0.0 | 7.8 | 0.00 | 0.00 | 0.00 | 60 | 1016.8 |
| 20260506164622 | 41 | 237 | 0.0 | 7.8 | 0.00 | 0.00 | 0.00 | 60 | 1016.9 |
| 20260506164308 | 41 | 255 | 0.0 | 7.8 | 0.00 | 0.00 | 0.00 | 61 | 1016.9 |
| 20260506164009 | 41 | 255 | 0.0 | 7.8 | 0.00 | 0.00 | 0.00 | 61 | 1016.8 |
| 20260506163907 | 41 | 254 | 0.0 | 7.8 | 0.00 | 0.00 | 0.00 | 61 | 1016.9 |
| 20260506163810 | 41 | 257 | 0.0 | 7.8 | 0.00 | 0.00 | 0.00 | 61 | 1016.9 |
| 20260506163656 | 41 | 233 | 0.0 | 8.7 | 0.00 | 0.00 | 0.00 | 62 | 1016.9 |
| 20260506163646 | 41 | 233 | 0.0 | 5.2 | 0.00 | 0.00 | 0.00 | 62 | 1016.9 |
| 20260506163623 | 41 | 233 | 0.0 | 8.7 | 0.00 | 0.00 | 0.00 | 62 | 1016.9 |
| 20260506163209 | 41 | 233 | 0.0 | 8.7 | 0.00 | 0.00 | 0.00 | 62 | 1016.8 |
| 20260506163012 | 41 | 234 | 0.0 | 8.7 | 0.00 | 0.00 | 0.00 | 60 | 1016.8 |
| 20260506162903 | 41 | 237 | 0.0 | 8.7 | 0.00 | 0.00 | 0.00 | 60 | 1016.9 |
| 20260506162810 | 41 | 237 | 0.0 | 8.7 | 0.00 | 0.00 | 0.00 | 60 | 1016.9 |
| 20260506162739 | 41 | 243 | 0.0 | 8.7 | 0.00 | 0.00 | 0.00 | 61 | 1016.9 |
| 20260506162649 | 41 | 228 | 0.0 | 4.3 | 0.00 | 0.00 | 0.00 | 60 | 1016.9 |
| 20260506162557 | 41 | 228 | 0.0 | 4.3 | 0.00 | 0.00 | 0.00 | 61 | 1016.9 |
| 20260506162208 | 41 | 261 | 0.0 | 4.3 | 0.00 | 0.00 | 0.00 | 60 | 1017.0 |
| 20260506162010 | 41 | 261 | 0.0 | 4.3 | 0.00 | 0.00 | 0.00 | 60 | 1016.9 |
| 20260506161811 | 41 | 248 | 0.0 | 3.5 | 0.00 | 0.00 | 0.00 | 60 | 1016.9 |
| 20260506161621 | 41 | 248 | 0.0 | 3.5 | 0.00 | 0.00 | 0.00 | 60 | 1016.8 |
| 20260506161405 | 41 | 0 | 0.0 | 3.5 | 0.00 | 0.00 | 0.00 | 61 | 1016.8 |
| 20260506161331 | 41 | 34 | 0.0 | 3.5 | 0.00 | 0.00 | 0.00 | 61 | 1016.9 |
| 20260506161206 | 41 | 223 | 0.0 | 3.5 | 0.00 | 0.00 | 0.00 | 62 | 1016.8 |
| 20260506161151 | 41 | 209 | 0.0 | 3.5 | 0.00 | 0.00 | 0.00 | 61 | 1016.8 |
| 20260506161104 | 41 | 125 | 0.0 | 3.5 | 0.00 | 0.00 | 0.00 | 62 | 1016.8 |
| 20260506160806 | 41 | 245 | 0.0 | 3.5 | 0.00 | 0.00 | 0.00 | 60 | 1016.8 |
| 20260506160620 | 41 | 238 | 0.0 | 3.5 | 0.00 | 0.00 | 0.00 | 61 | 1016.8 |
| 20260506160405 | 41 | 233 | 0.0 | 3.5 | 0.00 | 0.00 | 0.00 | 61 | 1016.8 |
| 20260506160334 | 41 | 231 | 0.0 | 3.5 | 0.00 | 0.00 | 0.00 | 62 | 1016.8 |
| 20260506160206 | 41 | 231 | 0.0 | 3.5 | 0.00 | 0.00 | 0.00 | 62 | 1016.8 |
| 20260506160100 | 41 | 233 | 0.0 | 3.5 | 0.00 | 0.00 | 0.00 | 62 | 1016.8 |
| 20260506160048 | 41 | 233 | 0.0 | 3.5 | 0.00 | 0.00 | 0.00 | 61 | 1016.8 |
| 20260506155620 | 41 | 224 | 0.0 | 2.6 | 0.00 | 0.00 | 0.00 | 61 | 1016.8 |
| 20260506155405 | 41 | 113 | 0.0 | 2.6 | 0.00 | 0.00 | 0.00 | 61 | 1016.8 |
| 20260506155310 | 41 | 113 | 0.0 | 2.6 | 0.00 | 0.00 | 0.00 | 61 | 1016.8 |
| 20260506155211 | 41 | 214 | 0.0 | 2.6 | 0.00 | 0.00 | 0.00 | 61 | 1016.8 |
| 20260506155044 | 41 | 214 | 0.0 | 2.6 | 0.00 | 0.00 | 0.00 | 61 | 1016.8 |
| 20260506155021 | 41 | 214 | 0.0 | 2.6 | 0.00 | 0.00 | 0.00 | 61 | 1016.8 |
| 20260506154610 | 40 | 235 | 0.0 | 3.5 | 0.00 | 0.00 | 0.00 | 62 | 1016.8 |
| 20260506154408 | 40 | 235 | 0.0 | 5.2 | 0.00 | 0.00 | 0.00 | 62 | 1016.7 |
| 20260506154315 | 40 | 235 | 0.0 | 5.2 | 0.00 | 0.00 | 0.00 | 62 | 1016.7 |
| 20260506154306 | 40 | 235 | 0.0 | 5.2 | 0.00 | 0.00 | 0.00 | 62 | 1016.7 |
| 20260506154044 | 40 | 235 | 0.0 | 7.8 | 0.00 | 0.00 | 0.00 | 62 | 1016.7 |
| 20260506154038 | 40 | 235 | 0.0 | 7.8 | 0.00 | 0.00 | 0.00 | 62 | 1016.7 |
| 20260506154012 | 40 | 235 | 0.0 | 7.8 | 0.00 | 0.00 | 0.00 | 62 | 1016.7 |
| 20260506153558 | 40 | 226 | 0.0 | 7.8 | 0.00 | 0.00 | 0.00 | 61 | 1016.6 |
| 20260506153352 | 40 | 252 | 0.0 | 7.8 | 0.00 | 0.00 | 0.00 | 61 | 1016.7 |
| 20260506153234 | 41 | 251 | 0.0 | 7.8 | 0.00 | 0.00 | 0.00 | 61 | 1016.6 |
| 20260506153153 | 41 | 251 | 0.0 | 7.8 | 0.00 | 0.00 | 0.00 | 61 | 1016.6 |
| 20260506152951 | 41 | 244 | 0.0 | 6.1 | 0.00 | 0.00 | 0.00 | 62 | 1016.7 |
| 20260506152754 | 41 | 224 | 0.0 | 4.3 | 0.00 | 0.00 | 0.00 | 61 | 1016.6 |
| 20260506152732 | 41 | 224 | 0.0 | 4.3 | 0.00 | 0.00 | 0.00 | 61 | 1016.7 |
| 20260506152554 | 41 | 224 | 0.0 | 4.3 | 0.00 | 0.00 | 0.00 | 61 | 1016.7 |
| 20260506152456 | 41 | 68 | 0.0 | 4.3 | 0.00 | 0.00 | 0.00 | 61 | 1016.6 |
| 20260506152231 | 41 | 68 | 0.0 | 4.3 | 0.00 | 0.00 | 0.00 | 61 | 1016.7 |
| 20260506152150 | 41 | 193 | 0.0 | 4.3 | 0.00 | 0.00 | 0.00 | 61 | 1016.7 |
| 20260506151947 | 41 | 213 | 0.0 | 4.3 | 0.00 | 0.00 | 0.00 | 62 | 1016.7 |
| 20260506151731 | 40 | 200 | 0.0 | 3.5 | 0.00 | 0.00 | 0.00 | 62 | 1016.7 |
| 20260506151549 | 40 | 144 | 0.0 | 2.6 | 0.00 | 0.00 | 0.00 | 63 | 1016.6 |
| 20260506151330 | 40 | 265 | 0.0 | 2.6 | 0.00 | 0.00 | 0.00 | 63 | 1016.7 |
| 20260506151229 | 41 | 265 | 0.0 | 2.6 | 0.00 | 0.00 | 0.00 | 63 | 1016.7 |
| 20260506151130 | 40 | 265 | 0.0 | 2.6 | 0.00 | 0.00 | 0.00 | 64 | 1016.6 |
| 20260506150931 | 40 | 220 | 0.0 | 2.6 | 0.00 | 0.00 | 0.00 | 64 | 1016.7 |
| 20260506150832 | 40 | 220 | 0.0 | 2.6 | 0.00 | 0.00 | 0.00 | 64 | 1016.7 |
| 20260506150731 | 40 | 220 | 0.0 | 2.6 | 0.00 | 0.00 | 0.00 | 64 | 1016.7 |
| 20260506150505 | 40 | 220 | 0.0 | 2.6 | 0.00 | 0.00 | 0.00 | 64 | 1016.7 |
| 20260506150246 | 40 | 219 | 0.0 | 7.8 | 0.00 | 0.00 | 0.00 | 64 | 1016.6 |
| 20260506150211 | 40 | 219 | 0.0 | 7.8 | 0.00 | 0.00 | 0.00 | 64 | 1016.6 |
| 20260506150053 | 40 | 197 | 0.0 | 7.8 | 0.00 | 0.00 | 0.00 | 65 | 1016.6 |
| 20260506145844 | 40 | 240 | 0.0 | 7.8 | 0.00 | 0.00 | 0.00 | 64 | 1016.7 |
| 20260506145707 | 40 | 131 | 0.0 | 7.8 | 0.00 | 0.00 | 0.00 | 64 | 1016.7 |
| 20260506145640 | 40 | 131 | 0.0 | 7.8 | 0.00 | 0.00 | 0.00 | 64 | 1016.7 |
| 20260506145438 | 39 | 230 | 0.0 | 5.2 | 0.00 | 0.00 | 0.00 | 62 | 1016.7 |
| 20260506145237 | 39 | 230 | 0.0 | 7.8 | 0.00 | 0.00 | 0.00 | 63 | 1016.8 |
| 20260506145205 | 39 | 219 | 0.0 | 7.8 | 0.00 | 0.00 | 0.00 | 63 | 1016.8 |
| 20260506145037 | 39 | 214 | 0.0 | 7.8 | 0.00 | 0.00 | 0.00 | 63 | 1016.8 |
| 20260506144932 | 39 | 241 | 0.0 | 7.8 | 0.00 | 0.00 | 0.00 | 63 | 1016.7 |
| 20260506144706 | 39 | 235 | 0.0 | 7.8 | 0.00 | 0.00 | 0.00 | 63 | 1016.7 |
| 20260506144636 | 39 | 237 | 0.0 | 7.8 | 0.00 | 0.00 | 0.00 | 63 | 1016.7 |
| 20260506144458 | 39 | 259 | 0.0 | 5.2 | 0.00 | 0.00 | 0.00 | 64 | 1016.7 |
| 20260506144448 | 39 | 230 | 0.0 | 7.8 | 0.00 | 0.00 | 0.00 | 63 | 1016.7 |
| 20260506144426 | 39 | 259 | 0.0 | 5.2 | 0.00 | 0.00 | 0.00 | 64 | 1016.7 |
| 20260506144040 | 39 | 259 | 0.0 | 5.2 | 0.00 | 0.00 | 0.00 | 64 | 1016.7 |
| 20260506143840 | 39 | 259 | 0.0 | 5.2 | 0.00 | 0.00 | 0.00 | 64 | 1016.7 |
| 20260506143640 | 39 | 244 | 0.0 | 5.2 | 0.00 | 0.00 | 0.00 | 64 | 1016.6 |
| 20260506143636 | 39 | 243 | 0.0 | 5.2 | 0.00 | 0.00 | 0.00 | 64 | 1016.7 |
| 20260506143506 | 39 | 243 | 0.0 | 5.2 | 0.00 | 0.00 | 0.00 | 64 | 1016.6 |
| 20260506143441 | 39 | 243 | 0.0 | 5.2 | 0.00 | 0.00 | 0.00 | 64 | 1016.6 |
| 20260506143418 | 39 | 243 | 0.0 | 5.2 | 0.00 | 0.00 | 0.00 | 64 | 1016.6 |
| 20260506143037 | 39 | 243 | 0.0 | 5.2 | 0.00 | 0.00 | 0.00 | 64 | 1016.6 |
| 20260506142829 | 39 | 241 | 0.0 | 5.2 | 0.00 | 0.00 | 0.00 | 64 | 1016.5 |
| 20260506142638 | 39 | 234 | 0.0 | 3.5 | 0.00 | 0.00 | 0.00 | 65 | 1016.6 |
| 20260506142631 | 39 | 235 | 0.0 | 3.5 | 0.00 | 0.00 | 0.00 | 65 | 1016.6 |
| 20260506142442 | 39 | 234 | 0.0 | 3.5 | 0.00 | 0.00 | 0.00 | 65 | 1016.6 |
| 20260506142437 | 39 | 234 | 0.0 | 3.5 | 0.00 | 0.00 | 0.00 | 65 | 1016.6 |
| 20260506142404 | 39 | 234 | 0.0 | 3.5 | 0.00 | 0.00 | 0.00 | 65 | 1016.6 |
| 20260506142032 | 39 | 234 | 0.0 | 3.5 | 0.00 | 0.00 | 0.00 | 64 | 1016.7 |
| 20260506141830 | 39 | 252 | 0.0 | 6.1 | 0.00 | 0.00 | 0.00 | 64 | 1016.6 |
| 20260506141729 | 39 | 252 | 0.0 | 6.1 | 0.00 | 0.00 | 0.00 | 64 | 1016.6 |
| 20260506141636 | 39 | 252 | 0.0 | 6.1 | 0.00 | 0.00 | 0.00 | 64 | 1016.6 |
| 20260506141433 | 39 | 244 | 0.0 | 6.1 | 0.00 | 0.00 | 0.00 | 65 | 1016.6 |
| 20260506141240 | 39 | 252 | 0.0 | 6.1 | 0.00 | 0.00 | 0.00 | 64 | 1016.7 |
| 20260506141135 | 39 | 250 | 0.0 | 6.1 | 0.00 | 0.00 | 0.00 | 64 | 1016.7 |
| 20260506141032 | 39 | 254 | 0.0 | 6.1 | 0.00 | 0.00 | 0.00 | 65 | 1016.7 |
| 20260506140830 | 39 | 241 | 0.0 | 3.5 | 0.00 | 0.00 | 0.00 | 65 | 1016.6 |
| 20260506140635 | 39 | 240 | 0.0 | 3.5 | 0.00 | 0.00 | 0.00 | 65 | 1016.6 |
| 20260506140630 | 39 | 240 | 0.0 | 3.5 | 0.00 | 0.00 | 0.00 | 65 | 1016.7 |
| 20260506140532 | 39 | 243 | 0.0 | 3.5 | 0.00 | 0.00 | 0.00 | 65 | 1016.6 |
| 20260506140231 | 39 | 241 | 0.0 | 4.3 | 0.00 | 0.00 | 0.00 | 65 | 1016.6 |
| 20260506140135 | 39 | 240 | 0.0 | 4.3 | 0.00 | 0.00 | 0.00 | 66 | 1016.6 |
| 20260506140030 | 39 | 234 | 0.0 | 4.3 | 0.00 | 0.00 | 0.00 | 66 | 1016.6 |
| 20260506135934 | 39 | 240 | 0.0 | 4.3 | 0.00 | 0.00 | 0.00 | 67 | 1016.5 |
| 20260506135915 | 39 | 233 | 0.0 | 4.3 | 0.00 | 0.00 | 0.00 | 67 | 1016.5 |
| 20260506135632 | 39 | 238 | 0.0 | 4.3 | 0.00 | 0.00 | 0.00 | 67 | 1016.5 |
| 20260506135430 | 38 | 238 | 0.0 | 4.3 | 0.00 | 0.00 | 0.00 | 67 | 1016.6 |
| 20260506135230 | 38 | 248 | 0.0 | 4.3 | 0.00 | 0.00 | 0.00 | 68 | 1016.5 |
| 20260506135135 | 38 | 248 | 0.0 | 4.3 | 0.00 | 0.00 | 0.00 | 68 | 1016.5 |
| 20260506135031 | 38 | 248 | 0.0 | 4.3 | 0.00 | 0.00 | 0.00 | 68 | 1016.4 |
| 20260506135015 | 38 | 235 | 0.0 | 3.5 | 0.00 | 0.00 | 0.00 | 69 | 1016.5 |
| 20260506134932 | 38 | 235 | 0.0 | 3.5 | 0.00 | 0.00 | 0.00 | 69 | 1016.5 |
| 20260506134630 | 38 | 235 | 0.0 | 3.5 | 0.00 | 0.00 | 0.00 | 69 | 1016.4 |
| 20260506134431 | 38 | 209 | 0.0 | 2.6 | 0.00 | 0.00 | 0.00 | 69 | 1016.4 |
| 20260506134231 | 38 | 209 | 0.0 | 4.3 | 0.00 | 0.00 | 0.00 | 70 | 1016.4 |
| 20260506134139 | 38 | 210 | 0.0 | 4.3 | 0.00 | 0.00 | 0.00 | 70 | 1016.4 |
| 20260506134030 | 38 | 228 | 0.0 | 4.3 | 0.00 | 0.00 | 0.00 | 70 | 1016.5 |
| 20260506133919 | 38 | 233 | 0.0 | 4.3 | 0.00 | 0.00 | 0.00 | 70 | 1016.4 |
| 20260506133908 | 38 | 233 | 0.0 | 4.3 | 0.00 | 0.00 | 0.00 | 70 | 1016.4 |
| 20260506133609 | 38 | 233 | 0.0 | 4.3 | 0.00 | 0.00 | 0.00 | 70 | 1016.5 |
| 20260506133407 | 38 | 234 | 0.0 | 3.5 | 0.00 | 0.00 | 0.00 | 70 | 1016.4 |
| 20260506133311 | 38 | 233 | 0.0 | 4.3 | 0.00 | 0.00 | 0.00 | 70 | 1016.4 |
| 20260506133136 | 38 | 241 | 0.0 | 4.3 | 0.00 | 0.00 | 0.00 | 70 | 1016.4 |
| 20260506133004 | 38 | 240 | 0.0 | 4.3 | 0.00 | 0.00 | 0.00 | 70 | 1016.4 |
| 20260506132809 | 38 | 250 | 0.0 | 4.3 | 0.00 | 0.00 | 0.00 | 71 | 1016.4 |
| 20260506132636 | 38 | 250 | 0.0 | 5.2 | 0.00 | 0.00 | 0.00 | 71 | 1016.4 |
| 20260506132606 | 38 | 250 | 0.0 | 5.2 | 0.00 | 0.00 | 0.00 | 71 | 1016.3 |
| 20260506132348 | 38 | 245 | 0.0 | 5.2 | 0.00 | 0.00 | 0.00 | 71 | 1016.4 |
| 20260506132148 | 38 | 238 | 0.0 | 5.2 | 0.00 | 0.00 | 0.00 | 71 | 1016.4 |
| 20260506132136 | 38 | 238 | 0.0 | 5.2 | 0.00 | 0.00 | 0.00 | 71 | 1016.3 |
| 20260506132051 | 38 | 255 | 0.0 | 5.2 | 0.00 | 0.00 | 0.00 | 71 | 1016.3 |
| 20260506131748 | 38 | 257 | 0.0 | 5.2 | 0.00 | 0.00 | 0.00 | 71 | 1016.3 |
| 20260506131633 | 38 | 254 | 0.0 | 4.3 | 0.00 | 0.00 | 0.00 | 71 | 1016.3 |
| 20260506131541 | 38 | 245 | 0.0 | 6.1 | 0.00 | 0.00 | 0.00 | 71 | 1016.3 |
| 20260506131340 | 38 | 238 | 0.0 | 6.1 | 0.00 | 0.00 | 0.00 | 71 | 1016.3 |
| 20260506131133 | 38 | 224 | 0.0 | 6.1 | 0.00 | 0.00 | 0.00 | 71 | 1016.3 |
| 20260506130939 | 38 | 226 | 0.0 | 6.1 | 0.00 | 0.00 | 0.00 | 71 | 1016.3 |
| 20260506130742 | 38 | 234 | 0.0 | 6.1 | 0.00 | 0.00 | 0.00 | 70 | 1016.2 |
| 20260506130632 | 38 | 255 | 0.0 | 6.1 | 0.00 | 0.00 | 0.00 | 71 | 1016.1 |
| 20260506130539 | 38 | 250 | 0.0 | 4.3 | 0.00 | 0.00 | 0.00 | 71 | 1016.1 |
| 20260506130439 | 38 | 254 | 0.0 | 4.3 | 0.00 | 0.00 | 0.00 | 71 | 1016.2 |
| 20260506130129 | 38 | 254 | 0.0 | 6.1 | 0.00 | 0.00 | 0.00 | 70 | 1016.1 |
| 20260506125943 | 38 | 251 | 0.0 | 6.1 | 0.00 | 0.00 | 0.00 | 70 | 1016.1 |
| 20260506125739 | 38 | 250 | 0.0 | 6.1 | 0.00 | 0.00 | 0.00 | 70 | 1016.1 |
| 20260506125629 | 38 | 251 | 0.0 | 6.1 | 0.00 | 0.00 | 0.00 | 70 | 1016.0 |
| 20260506125538 | 38 | 237 | 0.0 | 6.1 | 0.00 | 0.00 | 0.00 | 70 | 1016.1 |
| 20260506125340 | 38 | 255 | 0.0 | 6.1 | 0.00 | 0.00 | 0.00 | 71 | 1016.1 |
| 20260506125131 | 38 | 238 | 0.0 | 5.2 | 0.00 | 0.00 | 0.00 | 72 | 1016.0 |
| 20260506125005 | 38 | 243 | 0.0 | 3.5 | 0.00 | 0.00 | 0.00 | 72 | 1016.0 |
| 20260506124938 | 38 | 238 | 0.0 | 5.2 | 0.00 | 0.00 | 0.00 | 72 | 1015.9 |
| 20260506124919 | 38 | 243 | 0.0 | 3.5 | 0.00 | 0.00 | 0.00 | 72 | 1015.9 |
| 20260506124536 | 38 | 244 | 0.0 | 3.5 | 0.00 | 0.00 | 0.00 | 71 | 1015.9 |
| 20260506124337 | 38 | 244 | 0.0 | 3.5 | 0.00 | 0.00 | 0.00 | 71 | 1015.9 |
| 20260506124140 | 38 | 243 | 0.0 | 3.5 | 0.00 | 0.00 | 0.00 | 71 | 1015.8 |
| 20260506124129 | 38 | 243 | 0.0 | 3.5 | 0.00 | 0.00 | 0.00 | 71 | 1015.9 |
| 20260506123938 | 38 | 234 | 0.0 | 5.2 | 0.00 | 0.00 | 0.00 | 72 | 1015.8 |
| 20260506123736 | 38 | 244 | 0.0 | 5.2 | 0.00 | 0.00 | 0.00 | 72 | 1015.8 |
| 20260506123631 | 38 | 244 | 0.0 | 5.2 | 0.00 | 0.00 | 0.00 | 72 | 1015.8 |
| 20260506123537 | 38 | 244 | 0.0 | 5.2 | 0.00 | 0.00 | 0.00 | 72 | 1015.8 |
| 20260506123438 | 38 | 243 | 0.0 | 5.2 | 0.00 | 0.00 | 0.00 | 71 | 1015.8 |
| 20260506123136 | 38 | 243 | 0.0 | 5.2 | 0.00 | 0.00 | 0.00 | 72 | 1015.7 |
| 20260506123111 | 38 | 252 | 0.0 | 5.2 | 0.00 | 0.00 | 0.00 | 73 | 1015.7 |
| 20260506122939 | 38 | 238 | 0.0 | 3.5 | 0.00 | 0.00 | 0.00 | 73 | 1015.7 |
| 20260506122739 | 38 | 238 | 0.0 | 3.5 | 0.00 | 0.00 | 0.00 | 73 | 1015.7 |
| 20260506122609 | 38 | 238 | 0.0 | 3.5 | 0.00 | 0.00 | 0.00 | 74 | 1015.7 |
| 20260506122535 | 38 | 238 | 0.0 | 3.5 | 0.00 | 0.00 | 0.00 | 74 | 1015.8 |
| 20260506122335 | 38 | 240 | 0.0 | 3.5 | 0.00 | 0.00 | 0.00 | 74 | 1015.6 |
| 20260506122135 | 38 | 213 | 0.0 | 2.6 | 0.00 | 0.00 | 0.00 | 75 | 1015.7 |
| 20260506122109 | 38 | 212 | 0.0 | 1.7 | 0.00 | 0.00 | 0.00 | 75 | 1015.7 |
| 20260506121934 | 37 | 206 | 0.0 | 1.7 | 0.00 | 0.00 | 0.00 | 76 | 1015.6 |
| 20260506121833 | 37 | 206 | 0.0 | 1.7 | 0.00 | 0.00 | 0.00 | 76 | 1015.6 |
| 20260506121611 | 37 | 206 | 0.0 | 1.7 | 0.00 | 0.00 | 0.00 | 77 | 1015.6 |
| 20260506121533 | 37 | 206 | 0.0 | 1.7 | 0.00 | 0.00 | 0.00 | 77 | 1015.5 |
| 20260506121334 | 37 | 204 | 0.0 | 1.7 | 0.00 | 0.00 | 0.00 | 77 | 1015.5 |
| 20260506121136 | 35 | 203 | 0.0 | 0.0 | 0.00 | 0.00 | 0.00 | 81 | 1015.4 |
| 20260506121103 | 35 | 203 | 0.0 | 0.9 | 0.00 | 0.00 | 0.00 | 81 | 1015.4 |
| 20260506120928 | 35 | 203 | 0.0 | 0.9 | 0.00 | 0.00 | 0.00 | 81 | 1015.4 |
| 20260506120848 | 35 | 203 | 0.0 | 1.7 | 0.00 | 0.00 | 0.00 | 81 | 1015.3 |
| 20260506120838 | 35 | 203 | 0.0 | 1.7 | 0.00 | 0.00 | 0.00 | 81 | 1015.3 |
| 20260506120504 | 35 | 203 | 0.0 | 1.7 | 0.00 | 0.00 | 0.00 | 81 | 1015.3 |
| 20260506120404 | 35 | 203 | 0.0 | 1.7 | 0.00 | 0.00 | 0.00 | 81 | 1015.3 |
| 20260506120106 | 35 | 203 | 0.0 | 1.7 | 0.00 | 0.00 | 0.00 | 81 | 1015.3 |
| 20260506120034 | 35 | 203 | 0.0 | 1.7 | 0.00 | 0.00 | 0.00 | 82 | 1015.3 |
| 20260506115908 | 35 | 203 | 0.0 | 0.9 | 0.00 | 0.00 | 0.00 | 82 | 1015.3 |
| 20260506115707 | 35 | 203 | 0.0 | 0.9 | 0.00 | 0.00 | 0.00 | 83 | 1015.3 |
| 20260506115532 | 35 | 203 | 0.0 | 0.9 | 0.00 | 0.00 | 0.00 | 83 | 1015.3 |
| 20260506115504 | 34 | 203 | 0.0 | 0.9 | 0.00 | 0.00 | 0.00 | 83 | 1015.3 |
| 20260506115306 | 34 | 203 | 0.0 | 0.9 | 0.00 | 0.00 | 0.00 | 84 | 1015.3 |
| 20260506115038 | 34 | 203 | 0.0 | 0.9 | 0.00 | 0.00 | 0.00 | 84 | 1015.2 |
| 20260506114838 | 34 | 203 | 0.0 | 0.9 | 0.00 | 0.00 | 0.00 | 84 | 1015.3 |
| 20260506114735 | 33 | 203 | 0.0 | 0.9 | 0.00 | 0.00 | 0.00 | 84 | 1015.1 |
| 20260506114531 | 33 | 203 | 0.0 | 0.9 | 0.00 | 0.00 | 0.00 | 84 | 1015.0 |
| 20260506114437 | 33 | 203 | 0.0 | 0.9 | 0.00 | 0.00 | 0.00 | 84 | 1015.1 |
| 20260506114232 | 33 | 203 | 0.0 | 0.9 | 0.00 | 0.00 | 0.00 | 84 | 1015.1 |
| 20260506114032 | 33 | 203 | 0.0 | 0.9 | 0.00 | 0.00 | 0.00 | 83 | 1015.0 |
| 20260506113831 | 32 | 203 | 0.0 | 0.9 | 0.00 | 0.00 | 0.00 | 83 | 1014.8 |
| 20260506113630 | 32 | 203 | 0.0 | 0.9 | 0.00 | 0.00 | 0.00 | 83 | 1014.8 |
| 20260506113529 | 32 | 203 | 0.0 | 0.9 | 0.00 | 0.00 | 0.00 | 83 | 1014.7 |
| 20260506113428 | 32 | 203 | 0.0 | 0.9 | 0.00 | 0.00 | 0.00 | 83 | 1014.8 |
| 20260506113226 | 32 | 203 | 0.0 | 0.9 | 0.00 | 0.00 | 0.00 | 83 | 1014.8 |
| 20260506113134 | 32 | 203 | 0.0 | 0.9 | 0.00 | 0.00 | 0.00 | 83 | 1014.8 |
| 20260506113026 | 32 | 203 | 0.0 | 0.9 | 0.00 | 0.00 | 0.00 | 83 | 1014.8 |
| 20260506112826 | 32 | 203 | 0.0 | 0.9 | 0.00 | 0.00 | 0.00 | 83 | 1014.8 |
| 20260506112625 | 32 | 203 | 0.0 | 0.0 | 0.00 | 0.00 | 0.00 | 83 | 1014.7 |
| 20260506112531 | 32 | 203 | 0.0 | 0.0 | 0.00 | 0.00 | 0.00 | 83 | 1014.6 |
| 20260506112426 | 32 | 203 | 0.0 | 0.0 | 0.00 | 0.00 | 0.00 | 83 | 1014.6 |
| 20260506112324 | 32 | 203 | 0.0 | 0.0 | 0.00 | 0.00 | 0.00 | 83 | 1014.7 |
| 20260506112034 | 0 | 0.0 | 0.0 | 0.00 | 0.00 | 0.00 | 1014.7 | ||
| 20260506111826 | 32 | 203 | 0.0 | 0.0 | 0.00 | 0.00 | 0.00 | 83 | 1014.6 |
| 20260506111604 | 32 | 203 | 0.0 | 0.0 | 0.00 | 0.00 | 0.00 | 83 | 1014.6 |
| 20260506111511 | 32 | 203 | 0.0 | 0.0 | 0.00 | 0.00 | 0.00 | 83 | 1014.6 |
| 20260506111404 | 32 | 203 | 0.0 | 0.0 | 0.00 | 0.00 | 0.00 | 83 | 1014.6 |
| 20260506111203 | 32 | 203 | 0.0 | 0.0 | 0.00 | 0.00 | 0.00 | 83 | 1014.5 |
| 20260506111010 | 32 | 203 | 0.0 | 0.0 | 0.00 | 0.00 | 0.00 | 83 | 1014.5 |
| 20260506110936 | 32 | 203 | 0.0 | 0.0 | 0.00 | 0.00 | 0.00 | 83 | 1014.5 |
| 20260506110733 | 32 | 203 | 0.0 | 0.0 | 0.00 | 0.00 | 0.00 | 83 | 1014.5 |
| 20260506110631 | 32 | 203 | 0.0 | 0.0 | 0.00 | 0.00 | 0.00 | 83 | 1014.6 |
| 20260506110506 | 32 | 203 | 0.0 | 0.0 | 0.00 | 0.00 | 0.00 | 83 | 1014.6 |
| 20260506110330 | 32 | 203 | 0.0 | 0.0 | 0.00 | 0.00 | 0.00 | 83 | 1014.6 |
| 20260506110132 | 32 | 203 | 0.0 | 0.0 | 0.00 | 0.00 | 0.00 | 83 | 1014.6 |
| 20260506110006 | 32 | 203 | 0.0 | 0.9 | 0.00 | 0.00 | 0.00 | 83 | 1014.7 |
| 20260506105931 | 32 | 203 | 0.0 | 0.9 | 0.00 | 0.00 | 0.00 | 83 | 1014.7 |
| 20260506105726 | 32 | 203 | 0.0 | 0.9 | 0.00 | 0.00 | 0.00 | 83 | 1014.7 |
| 20260506105506 | 32 | 203 | 0.0 | 0.9 | 0.00 | 0.00 | 0.00 | 83 | 1014.8 |
| 20260506105325 | 32 | 203 | 0.0 | 0.9 | 0.00 | 0.00 | 0.00 | 83 | 1014.7 |
| 20260506105123 | 32 | 203 | 0.0 | 0.9 | 0.00 | 0.00 | 0.00 | 84 | 1014.8 |
| 20260506105026 | 32 | 203 | 0.0 | 0.9 | 0.00 | 0.00 | 0.00 | 84 | 1014.8 |
| 20260506105007 | 32 | 203 | 0.0 | 0.9 | 0.00 | 0.00 | 0.00 | 84 | 1014.8 |
| 20260506104723 | 32 | 203 | 0.0 | 0.9 | 0.00 | 0.00 | 0.00 | 84 | 1014.8 |
| 20260506104508 | 32 | 203 | 0.0 | 0.0 | 0.00 | 0.00 | 0.00 | 84 | 1015.1 |
| 20260506104311 | 31 | 203 | 0.0 | 0.0 | 0.00 | 0.00 | 0.00 | 84 | 1015.0 |
| 20260506104110 | 31 | 203 | 0.0 | 0.0 | 0.00 | 0.00 | 0.00 | 84 | 1015.0 |
| 20260506104018 | 31 | 203 | 0.0 | 0.0 | 0.00 | 0.00 | 0.00 | 84 | 1015.0 |
| 20260506104009 | 31 | 203 | 0.0 | 0.0 | 0.00 | 0.00 | 0.00 | 84 | 1015.0 |
| 20260506103707 | 31 | 203 | 0.0 | 0.9 | 0.00 | 0.00 | 0.00 | 84 | 1014.8 |
| 20260506103512 | 31 | 203 | 0.0 | 0.9 | 0.00 | 0.00 | 0.00 | 84 | 1014.8 |
| 20260506103507 | 31 | 203 | 0.0 | 0.9 | 0.00 | 0.00 | 0.00 | 84 | 1015.0 |
| 20260506103306 | 31 | 203 | 0.0 | 0.9 | 0.00 | 0.00 | 0.00 | 84 | 1015.0 |
| 20260506103248 | 31 | 203 | 0.0 | 0.9 | 0.00 | 0.00 | 0.00 | 84 | 1015.0 |
| 20260506103233 | 31 | 203 | 0.0 | 0.9 | 0.00 | 0.00 | 0.00 | 84 | 1015.0 |
| 20260506102903 | 31 | 203 | 0.0 | 0.9 | 0.00 | 0.00 | 0.00 | 84 | 1014.8 |
| 20260506102702 | 31 | 203 | 0.0 | 0.9 | 0.00 | 0.00 | 0.00 | 83 | 1015.0 |
| 20260506102513 | 31 | 203 | 0.0 | 0.9 | 0.00 | 0.00 | 0.00 | 83 | 1014.8 |
| 20260506102503 | 31 | 203 | 0.0 | 0.9 | 0.00 | 0.00 | 0.00 | 83 | 1015.0 |
| 20260506102401 | 30 | 203 | 0.0 | 0.0 | 0.00 | 0.00 | 0.00 | 83 | 1014.8 |
| 20260506102248 | 30 | 203 | 0.0 | 0.0 | 0.00 | 0.00 | 0.00 | 82 | 1014.8 |
| 20260506102233 | 30 | 203 | 0.0 | 0.0 | 0.00 | 0.00 | 0.00 | 83 | 1014.8 |
| 20260506101905 | 30 | 203 | 0.0 | 0.0 | 0.00 | 0.00 | 0.00 | 82 | 1014.7 |
| 20260506101708 | 31 | 203 | 0.0 | 0.9 | 0.00 | 0.00 | 0.00 | 82 | 1014.7 |
| 20260506101506 | 31 | 203 | 0.0 | 0.9 | 0.00 | 0.00 | 0.00 | 82 | 1014.7 |
| 20260506101436 | 31 | 203 | 0.0 | 0.9 | 0.00 | 0.00 | 0.00 | 82 | 1014.7 |
| 20260506101245 | 31 | 203 | 0.0 | 0.9 | 0.00 | 0.00 | 0.00 | 82 | 1014.7 |
| 20260506101229 | 31 | 203 | 0.0 | 0.9 | 0.00 | 0.00 | 0.00 | 82 | 1014.6 |
| 20260506100813 | 31 | 203 | 0.0 | 0.9 | 0.00 | 0.00 | 0.00 | 82 | 1014.6 |
| 20260506100611 | 31 | 203 | 0.0 | 0.0 | 0.00 | 0.00 | 0.00 | 81 | 1014.5 |
| 20260506100504 | 31 | 203 | 0.0 | 0.0 | 0.00 | 0.00 | 0.00 | 81 | 1014.5 |
| 20260506100411 | 31 | 203 | 0.0 | 0.0 | 0.00 | 0.00 | 0.00 | 81 | 1014.5 |
| 20260506100209 | 31 | 203 | 0.0 | 0.0 | 0.00 | 0.00 | 0.00 | 81 | 1014.5 |
| 20260506100009 | 31 | 203 | 0.0 | 0.0 | 0.00 | 0.00 | 0.00 | 81 | 1014.4 |
| 20260506095954 | 31 | 203 | 0.0 | 0.0 | 0.00 | 0.00 | 0.00 | 81 | 1014.4 |
| 20260506095909 | 31 | 203 | 0.0 | 0.0 | 0.00 | 0.00 | 0.00 | 81 | 1014.4 |
| 20260506095557 | 31 | 203 | 0.0 | 0.0 | 0.00 | 0.00 | 0.00 | 81 | 1014.5 |
| 20260506095444 | 31 | 203 | 0.0 | 0.0 | 0.00 | 0.00 | 0.00 | 81 | 1014.5 |
| 20260506095357 | 31 | 203 | 0.0 | 0.0 | 0.00 | 0.00 | 0.00 | 81 | 1014.5 |
| 20260506095156 | 31 | 203 | 0.0 | 0.0 | 0.00 | 0.00 | 0.00 | 81 | 1014.5 |
| 20260506094935 | 31 | 203 | 0.0 | 0.0 | 0.00 | 0.00 | 0.00 | 80 | 1014.5 |
| 20260506094757 | 31 | 203 | 0.0 | 0.0 | 0.00 | 0.00 | 0.00 | 80 | 1014.5 |
| 20260506094557 | 31 | 203 | 0.0 | 0.0 | 0.00 | 0.00 | 0.00 | 80 | 1014.6 |
| 20260506094430 | 31 | 203 | 0.0 | 0.0 | 0.00 | 0.00 | 0.00 | 80 | 1014.5 |
| 20260506094358 | 31 | 203 | 0.0 | 0.9 | 0.00 | 0.00 | 0.00 | 80 | 1014.5 |
| 20260506094259 | 31 | 203 | 0.0 | 0.9 | 0.00 | 0.00 | 0.00 | 80 | 1014.6 |
| 20260506093931 | 31 | 203 | 0.0 | 0.9 | 0.00 | 0.00 | 0.00 | 80 | 1014.5 |
| 20260506093743 | 31 | 203 | 0.0 | 0.9 | 0.00 | 0.00 | 0.00 | 80 | 1014.5 |
| 20260506093543 | 31 | 203 | 0.0 | 0.9 | 0.00 | 0.00 | 0.00 | 80 | 1014.4 |
| 20260506093431 | 31 | 203 | 0.0 | 0.9 | 0.00 | 0.00 | 0.00 | 80 | 1014.4 |
| 20260506093343 | 31 | 203 | 0.0 | 0.9 | 0.00 | 0.00 | 0.00 | 80 | 1014.4 |
| 20260506093144 | 31 | 203 | 0.0 | 0.0 | 0.00 | 0.00 | 0.00 | 79 | 1014.4 |
| 20260506092931 | 31 | 203 | 0.0 | 0.0 | 0.00 | 0.00 | 0.00 | 79 | 1014.3 |
| 20260506092746 | 31 | 203 | 0.0 | 0.0 | 0.00 | 0.00 | 0.00 | 79 | 1014.3 |
| 20260506092544 | 31 | 203 | 0.0 | 0.0 | 0.00 | 0.00 | 0.00 | 79 | 1014.3 |
| 20260506092430 | 31 | 203 | 0.0 | 0.0 | 0.00 | 0.00 | 0.00 | 79 | 1014.4 |
| 20260506092342 | 32 | 203 | 0.0 | 0.0 | 0.00 | 0.00 | 0.00 | 79 | 1014.4 |
| 20260506092144 | 32 | 203 | 0.0 | 0.0 | 0.00 | 0.00 | 0.00 | 79 | 1014.4 |
| 20260506091944 | 32 | 203 | 0.0 | 0.0 | 0.00 | 0.00 | 0.00 | 79 | 1014.3 |
| 20260506091931 | 32 | 203 | 0.0 | 0.0 | 0.00 | 0.00 | 0.00 | 79 | 1014.4 |
| 20260506091844 | 32 | 203 | 0.0 | 0.0 | 0.00 | 0.00 | 0.00 | 79 | 1014.3 |
| 20260506091542 | 32 | 203 | 0.0 | 0.0 | 0.00 | 0.00 | 0.00 | 78 | 1014.3 |
| 20260506091431 | 32 | 203 | 0.0 | 0.0 | 0.00 | 0.00 | 0.00 | 78 | 1014.3 |
| 20260506091332 | 32 | 203 | 0.0 | 0.0 | 0.00 | 0.00 | 0.00 | 78 | 1014.3 |
| 20260506091132 | 32 | 203 | 0.0 | 0.0 | 0.00 | 0.00 | 0.00 | 78 | 1014.4 |
| 20260506090933 | 32 | 203 | 0.0 | 0.0 | 0.00 | 0.00 | 0.00 | 76 | 1014.4 |
| 20260506090738 | 32 | 203 | 0.0 | 0.0 | 0.00 | 0.00 | 0.00 | 76 | 1014.5 |
| 20260506090526 | 32 | 203 | 0.0 | 0.9 | 0.00 | 0.00 | 0.00 | 76 | 1014.5 |
| 20260506090404 | 32 | 203 | 0.0 | 0.9 | 0.00 | 0.00 | 0.00 | 76 | 1014.4 |
| 20260506090326 | 32 | 203 | 0.0 | 0.9 | 0.00 | 0.00 | 0.00 | 76 | 1014.4 |
| 20260506090230 | 32 | 203 | 0.0 | 0.9 | 0.00 | 0.00 | 0.00 | 76 | 1014.5 |
| 20260506085920 | 32 | 203 | 0.0 | 0.9 | 0.00 | 0.00 | 0.00 | 76 | 1014.5 |
| 20260506085832 | 32 | 203 | 0.0 | 0.9 | 0.00 | 0.00 | 0.00 | 76 | 1014.5 |
| 20260506085719 | 32 | 203 | 0.0 | 0.9 | 0.00 | 0.00 | 0.00 | 76 | 1014.5 |
| 20260506085517 | 32 | 203 | 0.0 | 0.9 | 0.00 | 0.00 | 0.00 | 75 | 1014.4 |
| 20260506085312 | 32 | 203 | 0.0 | 0.9 | 0.00 | 0.00 | 0.00 | 75 | 1014.4 |
| 20260506085108 | 33 | 203 | 0.0 | 0.9 | 0.00 | 0.00 | 0.00 | 75 | 1014.4 |
| 20260506084907 | 33 | 203 | 0.0 | 0.9 | 0.00 | 0.00 | 0.00 | 74 | 1014.3 |
| 20260506084829 | 33 | 203 | 0.0 | 0.9 | 0.00 | 0.00 | 0.00 | 74 | 1014.3 |
| 20260506084713 | 33 | 203 | 0.0 | 0.9 | 0.00 | 0.00 | 0.00 | 73 | 1014.3 |
| 20260506084503 | 33 | 203 | 0.0 | 0.0 | 0.00 | 0.00 | 0.00 | 73 | 1014.2 |
| 20260506084333 | 33 | 203 | 0.0 | 0.0 | 0.00 | 0.00 | 0.00 | 73 | 1014.2 |
| 20260506084303 | 33 | 203 | 0.0 | 0.0 | 0.00 | 0.00 | 0.00 | 72 | 1014.2 |
| 20260506084104 | 34 | 203 | 0.0 | 0.0 | 0.00 | 0.00 | 0.00 | 72 | 1014.2 |
| 20260506083903 | 34 | 203 | 0.0 | 0.0 | 0.00 | 0.00 | 0.00 | 72 | 1014.1 |
| 20260506083829 | 34 | 203 | 0.0 | 0.0 | 0.00 | 0.00 | 0.00 | 72 | 1014.1 |
| 20260506083637 | 34 | 203 | 0.0 | 0.0 | 0.00 | 0.00 | 0.00 | 72 | 1014.1 |
| 20260506083426 | 34 | 203 | 0.0 | 0.0 | 0.00 | 0.00 | 0.00 | 72 | 1014.0 |
| 20260506083329 | 34 | 203 | 0.0 | 0.0 | 0.00 | 0.00 | 0.00 | 72 | 1014.0 |
| 20260506083226 | 34 | 203 | 0.0 | 0.0 | 0.00 | 0.00 | 0.00 | 71 | 1014.1 |
| 20260506083206 | 34 | 203 | 0.0 | 0.0 | 0.00 | 0.00 | 0.00 | 71 | 1014.1 |
| 20260506083110 | 34 | 203 | 0.0 | 0.0 | 0.00 | 0.00 | 0.00 | 71 | 1014.0 |
| 20260506082826 | 34 | 203 | 0.0 | 0.0 | 0.00 | 0.00 | 0.00 | 71 | 1014.0 |
| 20260506082630 | 34 | 203 | 0.0 | 0.0 | 0.00 | 0.00 | 0.00 | 71 | 1014.0 |
| 20260506082411 | 34 | 203 | 0.0 | 0.0 | 0.00 | 0.00 | 0.00 | 71 | 1014.0 |
| 20260506082326 | 34 | 203 | 0.0 | 0.0 | 0.00 | 0.00 | 0.00 | 71 | 1014.0 |
| 20260506082204 | 34 | 203 | 0.0 | 0.0 | 0.00 | 0.00 | 0.00 | 70 | 1014.0 |
| 20260506082108 | 34 | 203 | 0.0 | 0.0 | 0.00 | 0.00 | 0.00 | 70 | 1014.1 |
| 20260506082053 | 34 | 203 | 0.0 | 0.0 | 0.00 | 0.00 | 0.00 | 70 | 1014.1 |
| 20260506081803 | 34 | 203 | 0.0 | 0.0 | 0.00 | 0.00 | 0.00 | 70 | 1014.1 |
| 20260506081534 | 35 | 203 | 0.0 | 0.0 | 0.00 | 0.00 | 0.00 | 70 | 1014.0 |
| 20260506081430 | 35 | 203 | 0.0 | 0.0 | 0.00 | 0.00 | 0.00 | 70 | 1014.0 |
| 20260506081317 | 35 | 203 | 0.0 | 0.0 | 0.00 | 0.00 | 0.00 | 70 | 1014.0 |
| 20260506081126 | 35 | 203 | 0.0 | 0.0 | 0.00 | 0.00 | 0.00 | 69 | 1014.1 |
| 20260506081106 | 35 | 203 | 0.0 | 0.0 | 0.00 | 0.00 | 0.00 | 69 | 1014.1 |
| 20260506081037 | 35 | 203 | 0.0 | 0.0 | 0.00 | 0.00 | 0.00 | 69 | 1014.0 |
| 20260506080726 | 35 | 203 | 0.0 | 0.0 | 0.00 | 0.00 | 0.00 | 69 | 1014.1 |
| 20260506080527 | 35 | 203 | 0.0 | 0.0 | 0.00 | 0.00 | 0.00 | 69 | 1014.2 |
| 20260506080426 | 35 | 203 | 0.0 | 0.0 | 0.00 | 0.00 | 0.00 | 69 | 1014.2 |
| 20260506080306 | 35 | 203 | 0.0 | 0.0 | 0.00 | 0.00 | 0.00 | 68 | 1014.2 |
| 20260506080126 | 35 | 203 | 0.0 | 0.0 | 0.00 | 0.00 | 0.00 | 68 | 1014.2 |
| 20260506073502 | 36 | 203 | 0.0 | 0.0 | 0.00 | 0.00 | 0.00 | 68 | 1014.0 |
| 20260506073456 | 36 | 203 | 0.0 | 0.9 | 0.00 | 0.00 | 0.00 | 68 | 1013.9 |
| 20260506073429 | 36 | 203 | 0.0 | 0.9 | 0.00 | 0.00 | 0.00 | 68 | 1014.0 |
| 20260506073132 | 36 | 203 | 0.0 | 0.0 | 0.00 | 0.00 | 0.00 | 68 | 1013.9 |
| 20260506072827 | 36 | 203 | 0.0 | 0.9 | 0.00 | 0.00 | 0.00 | 68 | 1013.9 |
| 20260506072707 | 36 | 203 | 0.0 | 0.9 | 0.00 | 0.00 | 0.00 | 68 | 1013.8 |
| 20260506072626 | 36 | 203 | 0.0 | 1.7 | 0.00 | 0.00 | 0.00 | 68 | 1013.8 |
| 20260506072510 | 36 | 203 | 0.0 | 1.7 | 0.00 | 0.00 | 0.00 | 68 | 1013.9 |
| 20260506072455 | 36 | 203 | 0.0 | 1.7 | 0.00 | 0.00 | 0.00 | 68 | 1013.9 |
| 20260506072423 | 36 | 203 | 0.0 | 1.7 | 0.00 | 0.00 | 0.00 | 68 | 1014.0 |
| 20260506072024 | 36 | 203 | 0.0 | 1.7 | 0.00 | 0.00 | 0.00 | 67 | 1013.8 |
| 20260506071826 | 36 | 203 | 0.0 | 1.7 | 0.00 | 0.00 | 0.00 | 67 | 1013.8 |
| 20260506071706 | 36 | 203 | 0.0 | 1.7 | 0.00 | 0.00 | 0.00 | 67 | 1013.7 |
| 20260506071629 | 36 | 204 | 0.0 | 0.9 | 0.00 | 0.00 | 0.00 | 67 | 1013.7 |
| 20260506071518 | 36 | 204 | 0.0 | 0.0 | 0.00 | 0.00 | 0.00 | 67 | 1013.8 |
| 20260506071223 | 36 | 204 | 0.0 | 0.0 | 0.00 | 0.00 | 0.00 | 66 | 1013.7 |
| 20260506071204 | 36 | 204 | 0.0 | 0.0 | 0.00 | 0.00 | 0.00 | 66 | 1013.8 |
| 20260506071015 | 36 | 204 | 0.0 | 0.0 | 0.00 | 0.00 | 0.00 | 66 | 1013.6 |
| 20260506070957 | 37 | 204 | 0.0 | 0.9 | 0.00 | 0.00 | 0.00 | 67 | 1013.7 |
| 20260506070933 | 37 | 204 | 0.0 | 0.9 | 0.00 | 0.00 | 0.00 | 67 | 1013.7 |
| 20260506070613 | 37 | 204 | 0.0 | 0.9 | 0.00 | 0.00 | 0.00 | 67 | 1013.7 |
| 20260506070410 | 37 | 204 | 0.0 | 0.9 | 0.00 | 0.00 | 0.00 | 67 | 1013.7 |
| 20260506070211 | 37 | 204 | 0.0 | 0.9 | 0.00 | 0.00 | 0.00 | 67 | 1013.8 |
| 20260506070206 | 37 | 204 | 0.0 | 0.9 | 0.00 | 0.00 | 0.00 | 67 | 1013.7 |
| 20260506062441 | 38 | 204 | 0.0 | 0.9 | 0.00 | 0.00 | 0.00 | 65 | 1013.9 |
| 20260506062137 | 38 | 204 | 0.0 | 0.9 | 0.00 | 0.00 | 0.00 | 65 | 1013.7 |
| 20260506061939 | 38 | 204 | 0.0 | 0.9 | 0.00 | 0.00 | 0.00 | 65 | 1013.7 |
| 20260506061933 | 38 | 204 | 0.0 | 0.9 | 0.00 | 0.00 | 0.00 | 65 | 1013.7 |
| 20260506061907 | 38 | 204 | 0.0 | 0.9 | 0.00 | 0.00 | 0.00 | 65 | 1013.8 |
| 20260506061532 | 38 | 204 | 0.0 | 0.9 | 0.00 | 0.00 | 0.00 | 65 | 1013.6 |
| 20260506061334 | 38 | 204 | 0.0 | 0.9 | 0.00 | 0.00 | 0.00 | 66 | 1013.8 |
| 20260506061135 | 0 | 204 | 0.0 | 0.0 | 0.00 | 0.00 | 0.00 | 1013.8 | |
| 20260506060954 | 38 | 210 | 0.0 | 2.6 | 0.00 | 0.00 | 0.00 | 67 | 1013.8 |
| 20260506060936 | 38 | 210 | 0.0 | 2.6 | 0.00 | 0.00 | 0.00 | 67 | 1013.7 |
| 20260506060911 | 38 | 210 | 0.0 | 2.6 | 0.00 | 0.00 | 0.00 | 67 | 1013.7 |
| 20260506060531 | 38 | 210 | 0.0 | 2.6 | 0.00 | 0.00 | 0.00 | 67 | 1013.8 |
| 20260506060332 | 38 | 210 | 0.0 | 2.6 | 0.00 | 0.00 | 0.00 | 67 | 1013.7 |
| 20260506060131 | 38 | 210 | 0.0 | 2.6 | 0.00 | 0.00 | 0.00 | 67 | 1013.7 |
| 20260506051345 | 39 | 209 | 0.0 | 0.9 | 0.00 | 0.00 | 0.00 | 65 | 1013.5 |
| 20260506051130 | 39 | 209 | 0.0 | 0.9 | 0.00 | 0.00 | 0.00 | 65 | 1013.5 |
| 20260506051007 | 39 | 209 | 0.0 | 0.9 | 0.00 | 0.00 | 0.00 | 65 | 1013.4 |
| 20260506050932 | 39 | 209 | 0.0 | 0.9 | 0.00 | 0.00 | 0.00 | 65 | 1013.3 |
| 20260506050807 | 39 | 209 | 0.0 | 0.9 | 0.00 | 0.00 | 0.00 | 65 | 1013.2 |
| 20260506050736 | 39 | 209 | 0.0 | 0.9 | 0.00 | 0.00 | 0.00 | 65 | 1013.2 |
| 20260506050731 | 39 | 209 | 0.0 | 0.9 | 0.00 | 0.00 | 0.00 | 65 | 1013.3 |
| 20260506050316 | 39 | 209 | 0.0 | 0.9 | 0.00 | 0.00 | 0.00 | 65 | 1013.2 |
| 20260506050114 | 39 | 209 | 0.0 | 0.9 | 0.00 | 0.00 | 0.00 | 65 | 1013.2 |
| 20260506045104 | 39 | 209 | 0.0 | 0.9 | 0.00 | 0.00 | 0.00 | 64 | 1013.2 |
| 20260506045003 | 40 | 209 | 0.0 | 0.9 | 0.00 | 0.00 | 0.00 | 64 | 1013.2 |
| 20260506044944 | 40 | 209 | 0.0 | 0.9 | 0.00 | 0.00 | 0.00 | 64 | 1013.1 |
| 20260506044721 | 40 | 209 | 0.0 | 0.9 | 0.00 | 0.00 | 0.00 | 64 | 1013.1 |
| 20260506044717 | 40 | 209 | 0.0 | 0.9 | 0.00 | 0.00 | 0.00 | 64 | 1013.1 |
| 20260506044643 | 40 | 209 | 0.0 | 0.9 | 0.00 | 0.00 | 0.00 | 64 | 1013.3 |
| 20260506044246 | 40 | 214 | 0.0 | 0.9 | 0.00 | 0.00 | 0.00 | 64 | 1013.1 |
| 20260506044047 | 40 | 214 | 0.0 | 0.9 | 0.00 | 0.00 | 0.00 | 64 | 1013.2 |
| 20260506043929 | 40 | 214 | 0.0 | 0.9 | 0.00 | 0.00 | 0.00 | 64 | 1013.2 |
| 20260506043845 | 40 | 216 | 0.0 | 0.9 | 0.00 | 0.00 | 0.00 | 64 | 1013.2 |
| 20260506043726 | 40 | 274 | 0.0 | 0.9 | 0.00 | 0.00 | 0.00 | 64 | 1013.2 |
| 20260506043713 | 40 | 216 | 0.0 | 0.9 | 0.00 | 0.00 | 0.00 | 63 | 1013.1 |
| 20260506043644 | 40 | 274 | 0.0 | 0.9 | 0.00 | 0.00 | 0.00 | 64 | 1013.1 |
| 20260506043248 | 40 | 274 | 0.0 | 0.9 | 0.00 | 0.00 | 0.00 | 64 | 1013.2 |
| 20260506043134 | 40 | 274 | 0.0 | 1.7 | 0.00 | 0.00 | 0.00 | 64 | 1013.2 |
| 20260506042931 | 40 | 274 | 0.0 | 1.7 | 0.00 | 0.00 | 0.00 | 64 | 1013.2 |
| 20260506042836 | 40 | 274 | 0.0 | 1.7 | 0.00 | 0.00 | 0.00 | 64 | 1013.1 |
| 20260506042704 | 40 | 274 | 0.0 | 1.7 | 0.00 | 0.00 | 0.00 | 64 | 1013.2 |
| 20260506042643 | 40 | 274 | 0.0 | 1.7 | 0.00 | 0.00 | 0.00 | 64 | 1013.2 |
| 20260506042230 | 40 | 274 | 0.0 | 1.7 | 0.00 | 0.00 | 0.00 | 64 | 1013.1 |
| 20260506042035 | 40 | 227 | 0.0 | 0.9 | 0.00 | 0.00 | 0.00 | 64 | 1013.1 |
| 20260506041929 | 40 | 227 | 0.0 | 0.9 | 0.00 | 0.00 | 0.00 | 64 | 1013.1 |
| 20260506041832 | 40 | 227 | 0.0 | 0.9 | 0.00 | 0.00 | 0.00 | 63 | 1013.1 |
| 20260506041721 | 41 | 227 | 0.0 | 0.9 | 0.00 | 0.00 | 0.00 | 63 | 1013.1 |
| 20260506041710 | 40 | 227 | 0.0 | 0.9 | 0.00 | 0.00 | 0.00 | 63 | 1013.1 |
| 20260506041230 | 41 | 227 | 0.0 | 0.9 | 0.00 | 0.00 | 0.00 | 63 | 1013.0 |
| 20260506041032 | 41 | 227 | 0.0 | 0.9 | 0.00 | 0.00 | 0.00 | 63 | 1013.0 |
| 20260506040931 | 41 | 227 | 0.0 | 0.9 | 0.00 | 0.00 | 0.00 | 63 | 1013.0 |
| 20260506040833 | 41 | 227 | 0.0 | 0.9 | 0.00 | 0.00 | 0.00 | 63 | 1013.0 |
| 20260506040725 | 41 | 202 | 0.0 | 0.9 | 0.00 | 0.00 | 0.00 | 63 | 1013.0 |
| 20260506040714 | 41 | 227 | 0.0 | 0.9 | 0.00 | 0.00 | 0.00 | 62 | 1013.1 |
| 20260506040644 | 41 | 202 | 0.0 | 0.9 | 0.00 | 0.00 | 0.00 | 63 | 1013.0 |
| 20260506040203 | 41 | 202 | 0.0 | 1.7 | 0.00 | 0.00 | 0.00 | 63 | 1013.0 |
| 20260506040003 | 41 | 202 | 0.0 | 1.7 | 0.00 | 0.00 | 0.00 | 63 | 1013.0 |
| 20260506035919 | 41 | 202 | 0.0 | 1.7 | 0.00 | 0.00 | 0.00 | 63 | 1013.0 |
| 20260506035908 | 41 | 202 | 0.0 | 1.7 | 0.00 | 0.00 | 0.00 | 63 | 1013.1 |
| 20260506035531 | 41 | 202 | 0.0 | 2.6 | 0.00 | 0.00 | 0.00 | 63 | 1013.0 |
| 20260506035409 | 41 | 202 | 0.0 | 2.6 | 0.00 | 0.00 | 0.00 | 62 | 1013.0 |
| 20260506035330 | 41 | 213 | 0.0 | 2.6 | 0.00 | 0.00 | 0.00 | 62 | 1013.0 |
| 20260506035130 | 41 | 213 | 0.0 | 2.6 | 0.00 | 0.00 | 0.00 | 63 | 1013.1 |
| 20260506035027 | 41 | 237 | 0.0 | 2.6 | 0.00 | 0.00 | 0.00 | 63 | 1013.0 |
| 20260506034908 | 41 | 237 | 0.0 | 2.6 | 0.00 | 0.00 | 0.00 | 63 | 1013.0 |
| 20260506034734 | 41 | 237 | 0.0 | 2.6 | 0.00 | 0.00 | 0.00 | 62 | 1013.0 |
| 20260506034521 | 41 | 237 | 0.0 | 0.9 | 0.00 | 0.00 | 0.00 | 62 | 1013.0 |
| 20260506034405 | 42 | 237 | 0.0 | 1.7 | 0.00 | 0.00 | 0.00 | 61 | 1013.0 |
| 20260506034315 | 42 | 238 | 0.0 | 1.7 | 0.00 | 0.00 | 0.00 | 62 | 1013.0 |
| 20260506034115 | 42 | 237 | 0.0 | 1.7 | 0.00 | 0.00 | 0.00 | 61 | 1012.9 |
| 20260506033904 | 42 | 237 | 0.0 | 1.7 | 0.00 | 0.00 | 0.00 | 61 | 1012.9 |
| 20260506033719 | 42 | 237 | 0.0 | 1.7 | 0.00 | 0.00 | 0.00 | 61 | 1012.9 |
| 20260506033503 | 42 | 237 | 0.0 | 1.7 | 0.00 | 0.00 | 0.00 | 61 | 1012.8 |
| 20260506033407 | 42 | 237 | 0.0 | 0.9 | 0.00 | 0.00 | 0.00 | 61 | 1012.8 |
| 20260506033401 | 42 | 237 | 0.0 | 0.9 | 0.00 | 0.00 | 0.00 | 61 | 1012.8 |
| 20260506033104 | 42 | 237 | 0.0 | 0.9 | 0.00 | 0.00 | 0.00 | 60 | 1012.8 |
| 20260506032901 | 42 | 237 | 0.0 | 0.9 | 0.00 | 0.00 | 0.00 | 60 | 1012.9 |
| 20260506032708 | 42 | 223 | 0.0 | 0.9 | 0.00 | 0.00 | 0.00 | 60 | 1012.8 |
| 20260506032504 | 42 | 223 | 0.0 | 1.7 | 0.00 | 0.00 | 0.00 | 60 | 1012.8 |
| 20260506032404 | 42 | 223 | 0.0 | 1.7 | 0.00 | 0.00 | 0.00 | 60 | 1012.8 |
| 20260506032250 | 42 | 223 | 0.0 | 1.7 | 0.00 | 0.00 | 0.00 | 60 | 1012.9 |
| 20260506032049 | 42 | 223 | 0.0 | 1.7 | 0.00 | 0.00 | 0.00 | 60 | 1012.8 |
| 20260506031903 | 42 | 223 | 0.0 | 1.7 | 0.00 | 0.00 | 0.00 | 59 | 1012.8 |
| 20260506031849 | 42 | 223 | 0.0 | 1.7 | 0.00 | 0.00 | 0.00 | 59 | 1012.8 |
| 20260506031743 | 42 | 223 | 0.0 | 1.7 | 0.00 | 0.00 | 0.00 | 59 | 1012.8 |
| 20260506031444 | 42 | 223 | 0.0 | 0.9 | 0.00 | 0.00 | 0.00 | 59 | 1012.8 |
| 20260506031401 | 42 | 223 | 0.0 | 3.5 | 0.00 | 0.00 | 0.00 | 59 | 1012.8 |
| 20260506031245 | 42 | 223 | 0.0 | 3.5 | 0.00 | 0.00 | 0.00 | 59 | 1012.8 |
| 20260506031201 | 43 | 223 | 0.0 | 3.5 | 0.00 | 0.00 | 0.00 | 59 | 1012.7 |
| 20260506031138 | 43 | 223 | 0.0 | 3.5 | 0.00 | 0.00 | 0.00 | 58 | 1012.8 |
| 20260506030839 | 43 | 223 | 0.0 | 3.5 | 0.00 | 0.00 | 0.00 | 59 | 1012.7 |
| 20260506030646 | 43 | 223 | 0.0 | 3.5 | 0.00 | 0.00 | 0.00 | 58 | 1012.7 |
| 20260506030435 | 43 | 248 | 0.0 | 1.7 | 0.00 | 0.00 | 0.00 | 58 | 1012.7 |
| 20260506030400 | 43 | 248 | 0.0 | 1.7 | 0.00 | 0.00 | 0.00 | 58 | 1012.7 |
| 20260506030233 | 43 | 248 | 0.0 | 1.7 | 0.00 | 0.00 | 0.00 | 57 | 1012.6 |
| 20260506030137 | 43 | 196 | 0.0 | 1.7 | 0.00 | 0.00 | 0.00 | 57 | 1012.8 |
| 20260506025900 | 43 | 196 | 0.0 | 1.7 | 0.00 | 0.00 | 0.00 | 57 | 1012.7 |
| 20260506025832 | 43 | 196 | 0.0 | 1.7 | 0.00 | 0.00 | 0.00 | 57 | 1012.8 |
| 20260506025636 | 43 | 196 | 0.0 | 1.7 | 0.00 | 0.00 | 0.00 | 57 | 1012.7 |
| 20260506025406 | 43 | 196 | 0.0 | 1.7 | 0.00 | 0.00 | 0.00 | 57 | 1012.6 |
| 20260506025333 | 43 | 196 | 0.0 | 1.7 | 0.00 | 0.00 | 0.00 | 57 | 1012.6 |
| 20260506025200 | 43 | 195 | 0.0 | 0.9 | 0.00 | 0.00 | 0.00 | 57 | 1012.6 |
| 20260506025000 | 43 | 195 | 0.0 | 0.0 | 0.00 | 0.00 | 0.00 | 57 | 1012.5 |
| 20260506024830 | 43 | 189 | 0.0 | 0.0 | 0.00 | 0.00 | 0.00 | 56 | 1012.5 |
| 20260506024805 | 43 | 189 | 0.0 | 0.9 | 0.00 | 0.00 | 0.00 | 56 | 1012.5 |
| 20260506024608 | 44 | 189 | 0.0 | 0.9 | 0.00 | 0.00 | 0.00 | 56 | 1012.5 |
| 20260506024446 | 44 | 189 | 0.0 | 0.9 | 0.00 | 0.00 | 0.00 | 56 | 1012.4 |
| 20260506024303 | 44 | 189 | 0.0 | 2.6 | 0.00 | 0.00 | 0.00 | 56 | 1012.4 |
| 20260506024150 | 44 | 189 | 0.0 | 2.6 | 0.00 | 0.00 | 0.00 | 56 | 1012.3 |
| 20260506023949 | 44 | 189 | 0.0 | 2.6 | 0.00 | 0.00 | 0.00 | 56 | 1012.3 |
| 20260506023748 | 44 | 189 | 0.0 | 4.3 | 0.00 | 0.00 | 0.00 | 56 | 1012.3 |
| 20260506023733 | 44 | 238 | 0.0 | 4.3 | 0.00 | 0.00 | 0.00 | 55 | 1012.3 |
| 20260506023539 | 44 | 238 | 0.0 | 4.3 | 0.00 | 0.00 | 0.00 | 55 | 1012.4 |
| 20260506023310 | 44 | 238 | 0.0 | 4.3 | 0.00 | 0.00 | 0.00 | 55 | 1012.2 |
| 20260506023245 | 44 | 240 | 0.0 | 4.3 | 0.00 | 0.00 | 0.00 | 55 | 1012.2 |
| 20260506023110 | 44 | 240 | 0.0 | 4.3 | 0.00 | 0.00 | 0.00 | 54 | 1012.1 |
| 20260506022906 | 44 | 240 | 0.0 | 4.3 | 0.00 | 0.00 | 0.00 | 54 | 1012.1 |
| 20260506022745 | 44 | 240 | 0.0 | 3.5 | 0.00 | 0.00 | 0.00 | 54 | 1012.1 |
| 20260506022708 | 44 | 210 | 0.0 | 2.6 | 0.00 | 0.00 | 0.00 | 55 | 1012.1 |
| 20260506022601 | 44 | 207 | 0.0 | 2.6 | 0.00 | 0.00 | 0.00 | 54 | 1012.2 |
| 20260506022307 | 44 | 93 | 0.0 | 2.6 | 0.00 | 0.00 | 0.00 | 54 | 1012.1 |
| 20260506022245 | 44 | 83 | 0.0 | 2.6 | 0.00 | 0.00 | 0.00 | 54 | 1012.1 |
| 20260506022106 | 44 | 223 | 0.0 | 2.6 | 0.00 | 0.00 | 0.00 | 53 | 1012.1 |
| 20260506021850 | 44 | 220 | 0.0 | 0.9 | 0.00 | 0.00 | 0.00 | 54 | 1012.1 |
| 20260506021750 | 44 | 220 | 0.0 | 0.9 | 0.00 | 0.00 | 0.00 | 54 | 1012.1 |
| 20260506021651 | 44 | 220 | 0.0 | 1.7 | 0.00 | 0.00 | 0.00 | 54 | 1012.0 |
| 20260506021450 | 44 | 220 | 0.0 | 2.6 | 0.00 | 0.00 | 0.00 | 54 | 1011.9 |
| 20260506021250 | 44 | 259 | 0.0 | 2.6 | 0.00 | 0.00 | 0.00 | 54 | 1012.0 |
| 20260506021032 | 44 | 259 | 0.0 | 2.6 | 0.00 | 0.00 | 0.00 | 54 | 1012.0 |
| 20260506020940 | 45 | 237 | 0.0 | 3.5 | 0.00 | 0.00 | 0.00 | 53 | 1011.9 |
| 20260506020746 | 45 | 237 | 0.0 | 3.5 | 0.00 | 0.00 | 0.00 | 53 | 1011.9 |
| 20260506020613 | 45 | 228 | 0.0 | 4.3 | 0.00 | 0.00 | 0.00 | 54 | 1011.8 |
| 20260506020419 | 45 | 257 | 0.0 | 4.3 | 0.00 | 0.00 | 0.00 | 53 | 1011.9 |
| 20260506020214 | 45 | 258 | 0.0 | 4.3 | 0.00 | 0.00 | 0.00 | 53 | 1011.8 |
| 20260506020013 | 45 | 247 | 0.0 | 4.3 | 0.00 | 0.00 | 0.00 | 53 | 1011.8 |
| 20260506015813 | 45 | 231 | 0.0 | 4.3 | 0.00 | 0.00 | 0.00 | 54 | 1011.7 |
| 20260506015743 | 45 | 245 | 0.0 | 5.2 | 0.00 | 0.00 | 0.00 | 54 | 1011.7 |
| 20260506015611 | 45 | 221 | 0.0 | 5.2 | 0.00 | 0.00 | 0.00 | 54 | 1011.7 |
| 20260506015408 | 45 | 221 | 0.0 | 5.2 | 0.00 | 0.00 | 0.00 | 53 | 1011.6 |
| 20260506015234 | 45 | 221 | 0.0 | 5.2 | 0.00 | 0.00 | 0.00 | 53 | 1011.5 |
| 20260506015205 | 45 | 221 | 0.0 | 5.2 | 0.00 | 0.00 | 0.00 | 52 | 1011.5 |
| 20260506015004 | 45 | 245 | 0.0 | 5.2 | 0.00 | 0.00 | 0.00 | 53 | 1011.5 |
| 20260506014803 | 45 | 255 | 0.0 | 2.6 | 0.00 | 0.00 | 0.00 | 53 | 1011.5 |
| 20260506014732 | 45 | 210 | 0.0 | 1.7 | 0.00 | 0.00 | 0.00 | 53 | 1011.5 |
| 20260506014603 | 45 | 210 | 0.0 | 1.7 | 0.00 | 0.00 | 0.00 | 53 | 1011.5 |
| 20260506014406 | 45 | 210 | 0.0 | 1.7 | 0.00 | 0.00 | 0.00 | 53 | 1011.5 |
| 20260506014232 | 45 | 210 | 0.0 | 1.7 | 0.00 | 0.00 | 0.00 | 53 | 1011.5 |
| 20260506014135 | 45 | 210 | 0.0 | 1.7 | 0.00 | 0.00 | 0.00 | 53 | 1011.5 |
| 20260506014035 | 45 | 210 | 0.0 | 1.7 | 0.00 | 0.00 | 0.00 | 53 | 1011.4 |
| 20260506013732 | 46 | 233 | 0.0 | 1.7 | 0.00 | 0.00 | 0.00 | 53 | 1011.4 |
| 20260506013726 | 46 | 233 | 0.0 | 1.7 | 0.00 | 0.00 | 0.00 | 53 | 1011.5 |
| 20260506013533 | 46 | 193 | 0.0 | 1.7 | 0.00 | 0.00 | 0.00 | 52 | 1011.4 |
| 20260506013344 | 46 | 193 | 0.0 | 1.7 | 0.00 | 0.00 | 0.00 | 52 | 1011.4 |
| 20260506013222 | 46 | 248 | 0.0 | 1.7 | 0.00 | 0.00 | 0.00 | 52 | 1011.4 |
| 20260506013135 | 46 | 161 | 0.0 | 0.9 | 0.00 | 0.00 | 0.00 | 52 | 1011.4 |
| 20260506012934 | 46 | 161 | 0.0 | 2.6 | 0.00 | 0.00 | 0.00 | 52 | 1011.2 |
| 20260506012721 | 46 | 161 | 0.0 | 2.6 | 0.00 | 0.00 | 0.00 | 52 | 1011.1 |
| 20260506012503 | 46 | 161 | 0.0 | 2.6 | 0.00 | 0.00 | 0.00 | 52 | 1011.2 |
| 20260506012357 | 46 | 161 | 0.0 | 7.8 | 0.00 | 0.00 | 0.00 | 52 | 1011.2 |
| 20260506012221 | 46 | 161 | 0.0 | 7.8 | 0.00 | 0.00 | 0.00 | 51 | 1011.2 |
| 20260506012102 | 46 | 0 | 0.0 | 7.8 | 0.00 | 0.00 | 0.00 | 51 | 1011.1 |
| 20260506011831 | 46 | 0 | 0.0 | 7.8 | 0.00 | 0.00 | 0.00 | 51 | 1011.1 |
| 20260506011721 | 46 | 341 | 0.0 | 7.8 | 0.00 | 0.00 | 0.00 | 52 | 1011.1 |
| 20260506011624 | 46 | 216 | 0.0 | 7.8 | 0.00 | 0.00 | 0.00 | 52 | 1011.2 |
| 20260506011422 | 46 | 217 | 0.0 | 7.8 | 0.00 | 0.00 | 0.00 | 52 | 1011.0 |
| 20260506011221 | 47 | 202 | 0.0 | 1.7 | 0.00 | 0.00 | 0.00 | 51 | 1011.0 |
| 20260506011023 | 47 | 202 | 0.0 | 1.7 | 0.00 | 0.00 | 0.00 | 51 | 1010.9 |
| 20260506010823 | 47 | 238 | 0.0 | 1.7 | 0.00 | 0.00 | 0.00 | 52 | 1011.0 |
| 20260506010730 | 47 | 238 | 0.0 | 1.7 | 0.00 | 0.00 | 0.00 | 52 | 1011.0 |
| 20260506010725 | 47 | 238 | 0.0 | 1.7 | 0.00 | 0.00 | 0.00 | 52 | 1010.9 |
| 20260506010458 | 47 | 238 | 0.0 | 5.2 | 0.00 | 0.00 | 0.00 | 52 | 1010.9 |
| 20260506010451 | 47 | 238 | 0.0 | 1.7 | 0.00 | 0.00 | 0.00 | 52 | 1010.9 |
| 20260506010423 | 47 | 238 | 0.0 | 5.2 | 0.00 | 0.00 | 0.00 | 52 | 1010.9 |
| 20260506010029 | 47 | 227 | 0.0 | 5.2 | 0.00 | 0.00 | 0.00 | 52 | 1010.9 |
| 20260506005820 | 47 | 227 | 0.0 | 5.2 | 0.00 | 0.00 | 0.00 | 52 | 1010.9 |
| 20260506005706 | 47 | 237 | 0.0 | 5.2 | 0.00 | 0.00 | 0.00 | 52 | 1010.9 |
| 20260506005618 | 47 | 237 | 0.0 | 5.2 | 0.00 | 0.00 | 0.00 | 52 | 1010.9 |
| 20260506005505 | 47 | 183 | 0.0 | 4.3 | 0.00 | 0.00 | 0.00 | 52 | 1010.9 |
| 20260506005453 | 47 | 240 | 0.0 | 5.2 | 0.00 | 0.00 | 0.00 | 53 | 1010.9 |
| 20260506005423 | 47 | 183 | 0.0 | 4.3 | 0.00 | 0.00 | 0.00 | 52 | 1010.8 |
| 20260506005117 | 47 | 224 | 0.0 | 4.3 | 0.00 | 0.00 | 0.00 | 51 | 1010.9 |
| 20260506004818 | 47 | 224 | 0.0 | 4.3 | 0.00 | 0.00 | 0.00 | 51 | 1010.9 |
| 20260506004635 | 47 | 224 | 0.0 | 4.3 | 0.00 | 0.00 | 0.00 | 51 | 1010.8 |
| 20260506004617 | 47 | 224 | 0.0 | 4.3 | 0.00 | 0.00 | 0.00 | 52 | 1010.8 |
| 20260506004425 | 48 | 226 | 0.0 | 2.6 | 0.00 | 0.00 | 0.00 | 50 | 1010.8 |
| 20260506004421 | 0 | 226 | 0.0 | 2.6 | 0.00 | 0.00 | 0.00 | 1010.8 | |
| 20260506004352 | 48 | 226 | 0.0 | 2.6 | 0.00 | 0.00 | 0.00 | 50 | 1010.8 |
| 20260506004005 | 48 | 226 | 0.0 | 2.6 | 0.00 | 0.00 | 0.00 | 50 | 1010.8 |
| 20260506003806 | 48 | 226 | 0.0 | 3.5 | 0.00 | 0.00 | 0.00 | 50 | 1010.8 |
| 20260506003637 | 48 | 226 | 0.0 | 3.5 | 0.00 | 0.00 | 0.00 | 50 | 1010.8 |
| 20260506003533 | 48 | 226 | 0.0 | 3.5 | 0.00 | 0.00 | 0.00 | 50 | 1010.8 |
| 20260506003407 | 48 | 99 | 0.0 | 3.5 | 0.00 | 0.00 | 0.00 | 50 | 1010.8 |
| 20260506003108 | 48 | 223 | 0.0 | 3.5 | 0.00 | 0.00 | 0.00 | 50 | 1010.8 |
| 20260506002906 | 48 | 223 | 0.0 | 3.5 | 0.00 | 0.00 | 0.00 | 52 | 1010.7 |
| 20260506002804 | 48 | 223 | 0.0 | 3.5 | 0.00 | 0.00 | 0.00 | 49 | 1010.8 |
| 20260506002617 | 48 | 243 | 0.0 | 6.1 | 0.00 | 0.00 | 0.00 | 50 | 1010.8 |
| 20260506002507 | 48 | 243 | 0.0 | 6.1 | 0.00 | 0.00 | 0.00 | 50 | 1010.7 |
| 20260506002404 | 48 | 243 | 0.0 | 6.1 | 0.00 | 0.00 | 0.00 | 48 | 1010.7 |
| 20260506002349 | 48 | 243 | 0.0 | 6.1 | 0.00 | 0.00 | 0.00 | 50 | 1010.6 |
| 20260506002324 | 48 | 243 | 0.0 | 6.1 | 0.00 | 0.00 | 0.00 | 48 | 1010.7 |
| 20260506001906 | 48 | 243 | 0.0 | 6.1 | 0.00 | 0.00 | 0.00 | 48 | 1010.6 |
| 20260506001704 | 48 | 243 | 0.0 | 6.1 | 0.00 | 0.00 | 0.00 | 48 | 1010.6 |
| 20260506001609 | 48 | 196 | 0.0 | 3.5 | 0.00 | 0.00 | 0.00 | 49 | 1010.6 |
| 20260506001506 | 48 | 196 | 0.0 | 3.5 | 0.00 | 0.00 | 0.00 | 49 | 1010.6 |
| 20260506001345 | 48 | 183 | 0.0 | 3.5 | 0.00 | 0.00 | 0.00 | 50 | 1010.5 |
| 20260506001341 | 48 | 183 | 0.0 | 3.5 | 0.00 | 0.00 | 0.00 | 50 | 1010.5 |
| 20260506001330 | 48 | 183 | 0.0 | 3.5 | 0.00 | 0.00 | 0.00 | 50 | 1010.5 |
| 20260506000810 | 48 | 182 | 0.0 | 3.5 | 0.00 | 0.00 | 0.00 | 51 | 1010.5 |
| 20260506000601 | 48 | 255 | 0.0 | 3.5 | 0.00 | 0.00 | 0.00 | 50 | 1010.4 |
| 20260506000406 | 48 | 255 | 0.0 | 5.2 | 0.00 | 0.00 | 0.00 | 50 | 1010.4 |
| 20260506000347 | 48 | 243 | 0.0 | 5.2 | 0.00 | 0.00 | 0.00 | 50 | 1010.5 |
| 20260506000327 | 48 | 243 | 0.0 | 5.2 | 0.00 | 0.00 | 0.00 | 49 | 1010.5 |
| 20260506000009 | 48 | 257 | 0.0 | 5.2 | 0.00 | 0.00 | 0.00 | 50 | 1010.5 |
| 20260505235745 | 48 | 257 | 0.0 | 5.2 | 0.00 | 0.00 | 0.00 | 49 | 1010.4 |
| 20260505235603 | 48 | 257 | 0.0 | 6.1 | 0.00 | 0.00 | 0.00 | 48 | 1010.4 |
| 20260505235546 | 48 | 257 | 0.0 | 6.1 | 0.00 | 0.00 | 0.00 | 48 | 1010.4 |
| 20260505235447 | 48 | 252 | 0.0 | 6.1 | 0.00 | 0.00 | 0.00 | 48 | 1010.5 |
| 20260505235352 | 48 | 221 | 0.0 | 6.1 | 0.00 | 0.00 | 0.00 | 47 | 1010.4 |
| 20260505235322 | 48 | 252 | 0.0 | 6.1 | 0.00 | 0.00 | 0.00 | 47 | 1010.4 |
| 20260505234945 | 48 | 262 | 0.0 | 6.1 | 0.00 | 0.00 | 0.00 | 46 | 1010.4 |
| 20260505234730 | 48 | 234 | 0.0 | 5.2 | 0.00 | 0.00 | 0.00 | 47 | 1010.4 |
| 20260505234604 | 48 | 247 | 0.0 | 5.2 | 0.00 | 0.00 | 0.00 | 47 | 1010.4 |
| 20260505234529 | 48 | 245 | 0.0 | 5.2 | 0.00 | 0.00 | 0.00 | 47 | 1010.4 |
| 20260505234428 | 49 | 219 | 0.0 | 3.5 | 0.00 | 0.00 | 0.00 | 46 | 1010.4 |
| 20260505234102 | 49 | 226 | 0.0 | 6.1 | 0.00 | 0.00 | 0.00 | 46 | 1010.3 |
| 20260505233903 | 49 | 226 | 0.0 | 6.1 | 0.00 | 0.00 | 0.00 | 46 | 1010.4 |
| 20260505233842 | 49 | 226 | 0.0 | 8.7 | 0.00 | 0.00 | 0.00 | 46 | 1010.3 |
| 20260505233826 | 49 | 226 | 0.0 | 6.1 | 0.00 | 0.00 | 0.00 | 46 | 1010.4 |
| 20260505233500 | 49 | 226 | 0.0 | 8.7 | 0.00 | 0.00 | 0.00 | 46 | 1010.4 |
| 20260505233259 | 49 | 216 | 0.0 | 8.7 | 0.00 | 0.00 | 0.00 | 45 | 1010.3 |